| time (UTC) | temp F | wind direction | speed MPH | gust MPH | rain 1hr in | rain 24hr in | rain mn in | humidity % | barometer mb |
| 20260903090804 | 83 | 158 | 1.0 | 6.0 | 0.00 | 0.01 | 0.01 | 85 | 1007.2 |
| 20260903090703 | 83 | 159 | 1.0 | 6.0 | 0.00 | 0.01 | 0.01 | 85 | 1007.2 |
| 20260903090602 | 83 | 130 | 3.0 | 6.0 | 0.00 | 0.01 | 0.01 | 85 | 1007.1 |
| 20260903090503 | 83 | 157 | 2.0 | 6.0 | 0.00 | 0.01 | 0.01 | 85 | 1007.1 |
| 20260903090404 | 83 | 159 | 2.0 | 6.0 | 0.00 | 0.01 | 0.01 | 85 | 1007.2 |
| 20260903090302 | 83 | 148 | 2.0 | 6.0 | 0.00 | 0.01 | 0.01 | 85 | 1007.2 |
| 20260903090204 | 83 | 157 | 2.0 | 6.0 | 0.00 | 0.01 | 0.01 | 85 | 1007.1 |
| 20260903090001 | 83 | 166 | 3.0 | 6.0 | 0.00 | 0.01 | 0.01 | 85 | 1007.2 |
| 20260903085904 | 83 | 135 | 2.0 | 5.0 | 0.00 | 0.01 | 0.01 | 85 | 1007.1 |
| 20260903085804 | 83 | 179 | 2.0 | 5.0 | 0.00 | 0.01 | 0.01 | 85 | 1007.1 |
| 20260903085703 | 83 | 145 | 3.0 | 6.0 | 0.00 | 0.01 | 0.01 | 85 | 1007.1 |
| 20260903085603 | 83 | 140 | 2.0 | 6.0 | 0.00 | 0.01 | 0.01 | 85 | 1007.1 |
| 20260903085506 | 83 | 164 | 2.0 | 6.0 | 0.00 | 0.01 | 0.01 | 85 | 1007.2 |
| 20260903085403 | 83 | 162 | 2.0 | 6.0 | 0.00 | 0.01 | 0.01 | 85 | 1007.1 |
| 20260903085305 | 83 | 142 | 2.0 | 6.0 | 0.00 | 0.01 | 0.01 | 85 | 1007.1 |
| 20260903085203 | 83 | 173 | 2.0 | 6.0 | 0.00 | 0.01 | 0.01 | 84 | 1007.1 |
| 20260903085103 | 83 | 161 | 2.0 | 6.0 | 0.00 | 0.01 | 0.01 | 85 | 1007.1 |
| 20260903085003 | 83 | 152 | 2.0 | 6.0 | 0.00 | 0.01 | 0.01 | 85 | 1007.0 |
| 20260903084903 | 83 | 152 | 2.0 | 6.0 | 0.00 | 0.01 | 0.01 | 85 | 1007.0 |
| 20260903084802 | 83 | 110 | 4.0 | 6.0 | 0.00 | 0.01 | 0.01 | 85 | 1007.0 |
| 20260903084704 | 83 | 158 | 4.0 | 6.0 | 0.00 | 0.01 | 0.01 | 85 | 1007.1 |
| 20260903084603 | 83 | 149 | 3.0 | 6.0 | 0.00 | 0.01 | 0.01 | 85 | 1007.0 |
| 20260903084503 | 83 | 134 | 2.0 | 6.0 | 0.00 | 0.01 | 0.01 | 85 | 1007.1 |
| 20260903084404 | 83 | 155 | 2.0 | 6.0 | 0.00 | 0.01 | 0.01 | 85 | 1007.1 |
| 20260903084302 | 83 | 169 | 2.0 | 6.0 | 0.00 | 0.01 | 0.01 | 85 | 1007.1 |
| 20260903084203 | 83 | 178 | 2.0 | 6.0 | 0.00 | 0.01 | 0.01 | 85 | 1007.1 |
| 20260903084103 | 83 | 183 | 2.0 | 6.0 | 0.00 | 0.01 | 0.01 | 85 | 1007.1 |
| 20260903084004 | 83 | 158 | 3.0 | 6.0 | 0.00 | 0.01 | 0.01 | 85 | 1007.1 |
| 20260903083904 | 83 | 154 | 3.0 | 6.0 | 0.00 | 0.01 | 0.01 | 85 | 1007.0 |
| 20260903083802 | 83 | 168 | 4.0 | 6.0 | 0.00 | 0.01 | 0.01 | 85 | 1007.1 |
| 20260903083703 | 83 | 162 | 2.0 | 6.0 | 0.00 | 0.01 | 0.01 | 85 | 1007.0 |
| 20260903083604 | 83 | 154 | 3.0 | 6.0 | 0.00 | 0.01 | 0.01 | 85 | 1007.1 |
| 20260903083504 | 83 | 172 | 3.0 | 6.0 | 0.00 | 0.01 | 0.01 | 85 | 1007.1 |
| 20260903083402 | 83 | 180 | 1.0 | 6.0 | 0.00 | 0.01 | 0.01 | 85 | 1007.1 |
| 20260903083302 | 83 | 157 | 2.0 | 6.0 | 0.00 | 0.01 | 0.01 | 85 | 1007.1 |
| 20260903083203 | 83 | 149 | 3.0 | 6.0 | 0.00 | 0.01 | 0.01 | 85 | 1007.1 |
| 20260903083104 | 83 | 148 | 2.0 | 6.0 | 0.00 | 0.01 | 0.01 | 85 | 1007.1 |
| 20260903083003 | 83 | 162 | 1.0 | 6.0 | 0.00 | 0.01 | 0.01 | 85 | 1007.1 |
| 20260903082902 | 83 | 158 | 1.0 | 6.0 | 0.00 | 0.01 | 0.01 | 85 | 1007.2 |
| 20260903082803 | 83 | 161 | 3.0 | 6.0 | 0.00 | 0.01 | 0.01 | 85 | 1007.1 |
| 20260903082703 | 83 | 161 | 4.0 | 6.0 | 0.00 | 0.01 | 0.01 | 85 | 1007.0 |
| 20260903082604 | 83 | 168 | 3.0 | 6.0 | 0.00 | 0.01 | 0.01 | 85 | 1007.1 |
| 20260903082504 | 83 | 200 | 3.0 | 5.0 | 0.00 | 0.01 | 0.01 | 85 | 1007.1 |
| 20260903082403 | 83 | 155 | 3.0 | 5.0 | 0.00 | 0.01 | 0.01 | 85 | 1007.2 |
| 20260903082305 | 83 | 168 | 3.0 | 5.0 | 0.00 | 0.01 | 0.01 | 85 | 1007.0 |
| 20260903082204 | 83 | 159 | 2.0 | 5.0 | 0.00 | 0.01 | 0.01 | 85 | 1007.1 |
| 20260903082103 | 83 | 157 | 2.0 | 5.0 | 0.00 | 0.01 | 0.01 | 85 | 1007.1 |
| 20260903082003 | 83 | 148 | 2.0 | 5.0 | 0.00 | 0.01 | 0.01 | 85 | 1007.1 |
| 20260903081904 | 83 | 155 | 2.0 | 5.0 | 0.00 | 0.01 | 0.01 | 85 | 1007.1 |
| 20260903081802 | 83 | 159 | 3.0 | 5.0 | 0.00 | 0.01 | 0.01 | 85 | 1007.0 |
| 20260903081702 | 83 | 110 | 2.0 | 6.0 | 0.00 | 0.01 | 0.01 | 85 | 1007.1 |
| 20260903081602 | 83 | 133 | 2.0 | 6.0 | 0.00 | 0.01 | 0.01 | 85 | 1007.0 |
| 20260903081504 | 83 | 141 | 3.0 | 10.0 | 0.00 | 0.01 | 0.01 | 85 | 1007.0 |
| 20260903081403 | 83 | 138 | 3.0 | 12.0 | 0.00 | 0.01 | 0.01 | 85 | 1007.0 |
| 20260903081303 | 83 | 151 | 2.0 | 12.0 | 0.00 | 0.01 | 0.01 | 85 | 1007.0 |
| 20260903081204 | 83 | 130 | 2.0 | 12.0 | 0.00 | 0.01 | 0.01 | 84 | 1007.0 |
| 20260903081102 | 83 | 157 | 2.0 | 12.0 | 0.00 | 0.01 | 0.01 | 84 | 1007.0 |
| 20260903081004 | 83 | 151 | 2.0 | 12.0 | 0.00 | 0.01 | 0.01 | 84 | 1007.0 |
| 20260903080902 | 83 | 147 | 4.0 | 12.0 | 0.00 | 0.01 | 0.01 | 85 | 1007.1 |
| 20260903080803 | 83 | 189 | 4.0 | 12.0 | 0.00 | 0.01 | 0.01 | 85 | 1006.9 |
| 20260903080702 | 83 | 161 | 4.0 | 12.0 | 0.00 | 0.01 | 0.01 | 85 | 1007.0 |
| 20260903080603 | 83 | 158 | 5.0 | 12.0 | 0.00 | 0.01 | 0.01 | 85 | 1006.9 |
| 20260903080503 | 83 | 183 | 4.0 | 12.0 | 0.00 | 0.01 | 0.01 | 85 | 1007.0 |
| 20260903080404 | 83 | 190 | 3.0 | 10.0 | 0.00 | 0.01 | 0.01 | 85 | 1007.0 |
| 20260903080302 | 83 | 147 | 3.0 | 10.0 | 0.00 | 0.01 | 0.01 | 85 | 1006.8 |
| 20260903080203 | 83 | 162 | 3.0 | 10.0 | 0.00 | 0.01 | 0.01 | 85 | 1006.9 |
| 20260903080103 | 83 | 161 | 3.0 | 10.0 | 0.00 | 0.01 | 0.01 | 85 | 1006.9 |
| 20260903080004 | 83 | 148 | 2.0 | 10.0 | 0.00 | 0.01 | 0.01 | 85 | 1006.9 |
| 20260903075903 | 83 | 133 | 4.0 | 10.0 | 0.00 | 0.01 | 0.01 | 85 | 1006.9 |
| 20260903075803 | 83 | 159 | 6.0 | 10.0 | 0.00 | 0.01 | 0.01 | 85 | 1006.9 |
| 20260903075702 | 83 | 142 | 5.0 | 10.0 | 0.00 | 0.01 | 0.01 | 85 | 1006.9 |
| 20260903075604 | 83 | 182 | 2.0 | 7.0 | 0.00 | 0.01 | 0.01 | 85 | 1006.9 |
| 20260903075504 | 83 | 168 | 3.0 | 7.0 | 0.00 | 0.01 | 0.01 | 85 | 1006.9 |
| 20260903075402 | 83 | 175 | 3.0 | 7.0 | 0.00 | 0.01 | 0.01 | 85 | 1006.8 |
| 20260903075306 | 83 | 147 | 4.0 | 7.0 | 0.00 | 0.01 | 0.01 | 85 | 1006.8 |
| 20260903075202 | 83 | 148 | 4.0 | 7.0 | 0.00 | 0.01 | 0.01 | 85 | 1006.8 |
| 20260903075102 | 83 | 151 | 3.0 | 6.0 | 0.00 | 0.01 | 0.01 | 85 | 1006.8 |
| 20260903075003 | 83 | 124 | 3.0 | 7.0 | 0.00 | 0.01 | 0.01 | 85 | 1006.8 |
| 20260903074903 | 83 | 154 | 3.0 | 10.0 | 0.00 | 0.01 | 0.01 | 85 | 1006.9 |
| 20260903074804 | 83 | 127 | 3.0 | 10.0 | 0.00 | 0.01 | 0.01 | 85 | 1006.7 |
| 20260903074703 | 83 | 178 | 2.0 | 10.0 | 0.00 | 0.01 | 0.01 | 85 | 1006.7 |
| 20260903074603 | 83 | 155 | 2.0 | 10.0 | 0.00 | 0.01 | 0.01 | 85 | 1006.8 |
| 20260903074502 | 83 | 142 | 2.0 | 10.0 | 0.00 | 0.01 | 0.01 | 85 | 1006.8 |
| 20260903074403 | 83 | 134 | 3.0 | 10.0 | 0.00 | 0.01 | 0.01 | 85 | 1006.8 |
| 20260903074304 | 83 | 149 | 3.0 | 10.0 | 0.00 | 0.01 | 0.01 | 85 | 1006.9 |
| 20260903074202 | 83 | 164 | 4.0 | 10.0 | 0.00 | 0.01 | 0.01 | 85 | 1006.9 |
| 20260903074103 | 83 | 169 | 5.0 | 10.0 | 0.00 | 0.01 | 0.01 | 85 | 1006.9 |
| 20260903074003 | 83 | 130 | 5.0 | 10.0 | 0.00 | 0.01 | 0.01 | 85 | 1006.9 |
| 20260903073902 | 83 | 185 | 4.0 | 9.0 | 0.00 | 0.01 | 0.01 | 85 | 1006.9 |
| 20260903073804 | 83 | 199 | 3.0 | 9.0 | 0.00 | 0.01 | 0.01 | 85 | 1006.9 |
| 20260903073702 | 83 | 192 | 4.0 | 9.0 | 0.00 | 0.01 | 0.01 | 85 | 1006.9 |
| 20260903073604 | 83 | 147 | 4.0 | 9.0 | 0.00 | 0.01 | 0.01 | 85 | 1006.9 |
| 20260903073503 | 83 | 157 | 5.0 | 9.0 | 0.00 | 0.01 | 0.01 | 85 | 1006.8 |
| 20260903073404 | 83 | 142 | 4.0 | 9.0 | 0.00 | 0.01 | 0.01 | 85 | 1006.9 |
| 20260903073304 | 83 | 151 | 4.0 | 10.0 | 0.00 | 0.01 | 0.01 | 85 | 1006.8 |
| 20260903073203 | 83 | 120 | 4.0 | 10.0 | 0.00 | 0.01 | 0.01 | 85 | 1006.9 |
| 20260903073104 | 83 | 133 | 3.0 | 10.0 | 0.00 | 0.01 | 0.01 | 85 | 1007.0 |
| 20260903073004 | 83 | 157 | 3.0 | 10.0 | 0.00 | 0.01 | 0.01 | 86 | 1006.9 |
| 20260903072905 | 83 | 154 | 3.0 | 10.0 | 0.00 | 0.01 | 0.01 | 86 | 1007.0 |
| 20260903072802 | 83 | 149 | 3.0 | 10.0 | 0.00 | 0.01 | 0.01 | 86 | 1006.9 |
| 20260903072702 | 83 | 166 | 4.0 | 10.0 | 0.00 | 0.01 | 0.01 | 86 | 1006.9 |
| 20260903072602 | 83 | 141 | 4.0 | 10.0 | 0.00 | 0.01 | 0.01 | 86 | 1006.9 |
| 20260903072503 | 83 | 133 | 5.0 | 10.0 | 0.00 | 0.01 | 0.01 | 86 | 1007.0 |
| 20260903072403 | 83 | 145 | 5.0 | 10.0 | 0.00 | 0.01 | 0.01 | 86 | 1006.9 |
| 20260903072306 | 83 | 165 | 4.0 | 9.0 | 0.00 | 0.01 | 0.01 | 86 | 1006.9 |
| 20260903072203 | 83 | 145 | 3.0 | 7.0 | 0.00 | 0.01 | 0.01 | 86 | 1007.0 |
| 20260903072102 | 83 | 121 | 4.0 | 7.0 | 0.00 | 0.01 | 0.01 | 86 | 1007.0 |
| 20260903072004 | 83 | 128 | 3.0 | 7.0 | 0.00 | 0.01 | 0.01 | 86 | 1007.0 |
| 20260903071903 | 83 | 141 | 3.0 | 6.0 | 0.00 | 0.01 | 0.01 | 86 | 1007.0 |
| 20260903071803 | 83 | 152 | 4.0 | 7.0 | 0.00 | 0.01 | 0.01 | 86 | 1007.0 |
| 20260903071705 | 83 | 175 | 4.0 | 9.0 | 0.00 | 0.01 | 0.01 | 86 | 1006.9 |
| 20260903071603 | 83 | 155 | 3.0 | 9.0 | 0.00 | 0.01 | 0.01 | 86 | 1007.0 |
| 20260903071502 | 83 | 144 | 2.0 | 9.0 | 0.00 | 0.01 | 0.01 | 86 | 1007.0 |
| 20260903071403 | 83 | 148 | 3.0 | 9.0 | 0.00 | 0.01 | 0.01 | 86 | 1007.0 |
| 20260903071303 | 83 | 155 | 4.0 | 9.0 | 0.00 | 0.01 | 0.01 | 86 | 1007.0 |
| 20260903071204 | 83 | 151 | 4.0 | 9.0 | 0.00 | 0.01 | 0.01 | 86 | 1007.0 |
| 20260903071103 | 83 | 173 | 3.0 | 9.0 | 0.00 | 0.01 | 0.01 | 86 | 1007.0 |
| 20260903071004 | 83 | 145 | 4.0 | 9.0 | 0.00 | 0.01 | 0.01 | 86 | 1007.1 |
| 20260903070901 | 83 | 179 | 4.0 | 9.0 | 0.00 | 0.01 | 0.01 | 86 | 1007.1 |
| 20260903070803 | 83 | 120 | 3.0 | 9.0 | 0.00 | 0.01 | 0.01 | 86 | 1007.2 |
| 20260903070705 | 83 | 148 | 2.0 | 6.0 | 0.00 | 0.01 | 0.01 | 87 | 1007.1 |
| 20260903070603 | 83 | 155 | 3.0 | 6.0 | 0.00 | 0.01 | 0.01 | 87 | 1007.1 |
| 20260903070503 | 83 | 154 | 4.0 | 6.0 | 0.00 | 0.01 | 0.01 | 87 | 1007.1 |
| 20260903070403 | 82 | 166 | 4.0 | 6.0 | 0.00 | 0.01 | 0.01 | 87 | 1007.1 |
| 20260903070304 | 82 | 135 | 3.0 | 5.0 | 0.00 | 0.01 | 0.01 | 87 | 1007.0 |
| 20260903070204 | 83 | 154 | 3.0 | 5.0 | 0.00 | 0.01 | 0.01 | 87 | 1007.1 |
| 20260903070103 | 82 | 145 | 3.0 | 5.0 | 0.00 | 0.01 | 0.01 | 87 | 1007.2 |
| 20260903070002 | 82 | 135 | 3.0 | 5.0 | 0.00 | 0.01 | 0.01 | 87 | 1007.2 |
| 20260903065904 | 82 | 138 | 3.0 | 5.0 | 0.00 | 0.01 | 0.01 | 87 | 1007.2 |
| 20260903065802 | 82 | 148 | 3.0 | 5.0 | 0.00 | 0.01 | 0.01 | 87 | 1007.2 |
| 20260903065703 | 82 | 135 | 2.0 | 4.0 | 0.00 | 0.01 | 0.01 | 87 | 1007.3 |
| 20260903065604 | 82 | 148 | 2.0 | 4.0 | 0.01 | 0.01 | 0.01 | 87 | 1007.3 |
| 20260903065502 | 82 | 161 | 3.0 | 4.0 | 0.01 | 0.01 | 0.01 | 87 | 1007.4 |
| 20260903065402 | 82 | 137 | 3.0 | 4.0 | 0.01 | 0.01 | 0.01 | 87 | 1007.4 |
| 20260903065306 | 82 | 148 | 2.0 | 5.0 | 0.01 | 0.01 | 0.01 | 87 | 1007.4 |
| 20260903065204 | 82 | 154 | 2.0 | 5.0 | 0.01 | 0.01 | 0.01 | 87 | 1007.4 |
| 20260903065102 | 82 | 149 | 2.0 | 5.0 | 0.01 | 0.01 | 0.01 | 87 | 1007.4 |
| 20260903065003 | 82 | 165 | 2.0 | 5.0 | 0.01 | 0.01 | 0.01 | 87 | 1007.4 |
| 20260903064903 | 82 | 162 | 2.0 | 5.0 | 0.01 | 0.01 | 0.01 | 87 | 1007.5 |
| 20260903064804 | 82 | 165 | 2.0 | 5.0 | 0.01 | 0.01 | 0.01 | 87 | 1007.5 |
| 20260903064704 | 82 | 162 | 2.0 | 5.0 | 0.01 | 0.01 | 0.01 | 87 | 1007.4 |
| 20260903064604 | 82 | 134 | 3.0 | 5.0 | 0.01 | 0.01 | 0.01 | 87 | 1007.5 |
| 20260903064504 | 82 | 149 | 3.0 | 5.0 | 0.01 | 0.01 | 0.01 | 87 | 1007.5 |
| 20260903064404 | 82 | 151 | 3.0 | 5.0 | 0.01 | 0.01 | 0.01 | 87 | 1007.5 |
| 20260903064304 | 82 | 142 | 3.0 | 5.0 | 0.01 | 0.01 | 0.01 | 87 | 1007.5 |
| 20260903064204 | 82 | 145 | 3.0 | 5.0 | 0.01 | 0.01 | 0.01 | 87 | 1007.4 |
| 20260903064103 | 82 | 144 | 2.0 | 6.0 | 0.01 | 0.01 | 0.01 | 87 | 1007.4 |
| 20260903064004 | 82 | 135 | 2.0 | 6.0 | 0.01 | 0.01 | 0.01 | 87 | 1007.5 |
| 20260903063905 | 82 | 179 | 3.0 | 6.0 | 0.01 | 0.01 | 0.01 | 87 | 1007.5 |
| 20260903063803 | 82 | 152 | 2.0 | 6.0 | 0.01 | 0.01 | 0.01 | 87 | 1007.4 |
| 20260903063702 | 82 | 176 | 2.0 | 6.0 | 0.01 | 0.01 | 0.01 | 87 | 1007.4 |
| 20260903063604 | 82 | 155 | 3.0 | 6.0 | 0.01 | 0.01 | 0.01 | 87 | 1007.4 |
| 20260903063504 | 82 | 166 | 2.0 | 6.0 | 0.01 | 0.01 | 0.01 | 87 | 1007.4 |
| 20260903063403 | 82 | 134 | 3.0 | 6.0 | 0.01 | 0.01 | 0.01 | 87 | 1007.4 |
| 20260903063303 | 82 | 135 | 3.0 | 6.0 | 0.01 | 0.01 | 0.01 | 87 | 1007.5 |
| 20260903063202 | 82 | 133 | 3.0 | 6.0 | 0.01 | 0.01 | 0.01 | 87 | 1007.5 |
| 20260903063104 | 82 | 137 | 3.0 | 4.0 | 0.01 | 0.01 | 0.01 | 87 | 1007.5 |
| 20260903063005 | 82 | 134 | 3.0 | 4.0 | 0.01 | 0.01 | 0.01 | 87 | 1007.5 |
| 20260903062903 | 82 | 131 | 3.0 | 4.0 | 0.01 | 0.01 | 0.01 | 87 | 1007.6 |
| 20260903062802 | 82 | 144 | 2.0 | 4.0 | 0.01 | 0.01 | 0.01 | 87 | 1007.6 |
| 20260903062704 | 82 | 131 | 2.0 | 4.0 | 0.01 | 0.01 | 0.01 | 87 | 1007.6 |
| 20260903062604 | 82 | 131 | 1.0 | 5.0 | 0.01 | 0.01 | 0.01 | 87 | 1007.6 |
| 20260903062503 | 82 | 131 | 2.0 | 5.0 | 0.01 | 0.01 | 0.01 | 87 | 1007.6 |
| 20260903062403 | 82 | 130 | 2.0 | 5.0 | 0.01 | 0.01 | 0.01 | 87 | 1007.6 |
| 20260903062306 | 82 | 130 | 2.0 | 5.0 | 0.01 | 0.01 | 0.01 | 87 | 1007.6 |
| 20260903062203 | 82 | 149 | 2.0 | 5.0 | 0.01 | 0.01 | 0.01 | 87 | 1007.7 |
| 20260903062103 | 82 | 158 | 2.0 | 5.0 | 0.01 | 0.01 | 0.01 | 87 | 1007.7 |
| 20260903062004 | 82 | 155 | 2.0 | 5.0 | 0.01 | 0.01 | 0.01 | 87 | 1007.7 |
| 20260903061903 | 82 | 155 | 2.0 | 5.0 | 0.01 | 0.01 | 0.01 | 87 | 1007.6 |
| 20260903061802 | 82 | 148 | 3.0 | 5.0 | 0.01 | 0.01 | 0.01 | 87 | 1007.7 |
| 20260903061704 | 82 | 127 | 3.0 | 5.0 | 0.01 | 0.01 | 0.01 | 87 | 1007.7 |
| 20260903061602 | 82 | 137 | 2.0 | 5.0 | 0.01 | 0.01 | 0.01 | 87 | 1007.7 |
| 20260903061505 | 82 | 151 | 2.0 | 5.0 | 0.01 | 0.01 | 0.01 | 88 | 1007.7 |
| 20260903061403 | 82 | 149 | 1.0 | 5.0 | 0.01 | 0.01 | 0.01 | 88 | 1007.7 |
| 20260903061302 | 82 | 151 | 1.0 | 5.0 | 0.01 | 0.01 | 0.01 | 88 | 1007.6 |
| 20260903061203 | 82 | 131 | 2.0 | 5.0 | 0.01 | 0.01 | 0.01 | 88 | 1007.6 |
| 20260903061103 | 82 | 120 | 3.0 | 5.0 | 0.01 | 0.01 | 0.01 | 87 | 1007.6 |
| 20260903061004 | 82 | 121 | 3.0 | 5.0 | 0.01 | 0.01 | 0.01 | 87 | 1007.5 |
| 20260903060903 | 82 | 128 | 2.0 | 5.0 | 0.01 | 0.01 | 0.01 | 87 | 1007.7 |
| 20260903060805 | 82 | 127 | 2.0 | 5.0 | 0.01 | 0.01 | 0.01 | 87 | 1007.6 |
| 20260903060704 | 82 | 137 | 3.0 | 5.0 | 0.01 | 0.01 | 0.01 | 87 | 1007.6 |
| 20260903060604 | 82 | 102 | 4.0 | 5.0 | 0.01 | 0.01 | 0.01 | 87 | 1007.7 |
| 20260903060503 | 82 | 130 | 3.0 | 4.0 | 0.01 | 0.01 | 0.01 | 87 | 1007.7 |
| 20260903060403 | 82 | 124 | 3.0 | 4.0 | 0.01 | 0.01 | 0.01 | 87 | 1007.7 |
| 20260903060303 | 82 | 127 | 3.0 | 4.0 | 0.01 | 0.01 | 0.01 | 87 | 1007.7 |
| 20260903060203 | 82 | 133 | 3.0 | 4.0 | 0.01 | 0.01 | 0.01 | 87 | 1007.7 |
| 20260903060103 | 83 | 125 | 2.0 | 4.0 | 0.01 | 0.01 | 0.01 | 87 | 1007.8 |
| 20260903060005 | 83 | 128 | 2.0 | 4.0 | 0.01 | 0.01 | 0.00 | 87 | 1007.8 |
| 20260903055902 | 83 | 127 | 2.0 | 4.0 | 0.01 | 0.01 | 0.01 | 87 | 1007.8 |
| 20260903055804 | 83 | 111 | 2.0 | 4.0 | 0.01 | 0.01 | 0.01 | 87 | 1007.8 |
| 20260903055703 | 83 | 142 | 2.0 | 4.0 | 0.01 | 0.00 | 0.00 | 87 | 1007.9 |
| 20260903055604 | 83 | 130 | 2.0 | 4.0 | 0.00 | 0.00 | 0.00 | 87 | 1007.9 |
| 20260903055504 | 83 | 130 | 2.0 | 4.0 | 0.00 | 0.00 | 0.00 | 87 | 1007.9 |
| 20260903055402 | 83 | 130 | 2.0 | 4.0 | 0.00 | 0.00 | 0.00 | 87 | 1008.0 |
| 20260903055306 | 83 | 141 | 2.0 | 4.0 | 0.00 | 0.00 | 0.00 | 87 | 1008.0 |
| 20260903055203 | 83 | 137 | 2.0 | 4.0 | 0.00 | 0.00 | 0.00 | 87 | 1007.9 |
| 20260903055104 | 83 | 152 | 2.0 | 4.0 | 0.00 | 0.00 | 0.00 | 87 | 1008.0 |
| 20260903055004 | 83 | 157 | 2.0 | 4.0 | 0.00 | 0.00 | 0.00 | 87 | 1008.0 |
| 20260903054903 | 83 | 159 | 2.0 | 4.0 | 0.00 | 0.00 | 0.00 | 87 | 1008.0 |
| 20260903054803 | 83 | 135 | 2.0 | 4.0 | 0.00 | 0.00 | 0.00 | 87 | 1008.0 |
| 20260903054702 | 83 | 133 | 2.0 | 4.0 | 0.00 | 0.00 | 0.00 | 87 | 1008.0 |
| 20260903054604 | 83 | 141 | 2.0 | 3.0 | 0.00 | 0.00 | 0.00 | 87 | 1008.0 |
| 20260903054503 | 83 | 141 | 2.0 | 3.0 | 0.00 | 0.00 | 0.00 | 87 | 1008.0 |
| 20260903054402 | 83 | 137 | 2.0 | 3.0 | 0.00 | 0.00 | 0.00 | 87 | 1008.1 |
| 20260903054304 | 83 | 138 | 1.0 | 3.0 | 0.00 | 0.00 | 0.00 | 87 | 1008.1 |
| 20260903054202 | 83 | 137 | 1.0 | 3.0 | 0.00 | 0.00 | 0.00 | 87 | 1008.0 |
| 20260903054103 | 83 | 138 | 1.0 | 3.0 | 0.00 | 0.00 | 0.00 | 87 | 1008.1 |
| 20260903054003 | 83 | 137 | 2.0 | 3.0 | 0.00 | 0.00 | 0.00 | 87 | 1008.1 |
| 20260903053904 | 83 | 149 | 1.0 | 4.0 | 0.00 | 0.00 | 0.00 | 87 | 1008.1 |
| 20260903053803 | 83 | 157 | 1.0 | 4.0 | 0.00 | 0.00 | 0.00 | 87 | 1008.1 |
| 20260903053702 | 83 | 144 | 1.0 | 4.0 | 0.00 | 0.00 | 0.00 | 87 | 1008.1 |
| 20260903053603 | 83 | 144 | 1.0 | 4.0 | 0.00 | 0.00 | 0.00 | 87 | 1008.1 |
| 20260903053502 | 83 | 144 | 1.0 | 4.0 | 0.00 | 0.00 | 0.00 | 86 | 1008.0 |
| 20260903053402 | 83 | 144 | 1.0 | 4.0 | 0.00 | 0.00 | 0.00 | 86 | 1008.0 |
| 20260903053305 | 83 | 144 | 1.0 | 4.0 | 0.00 | 0.00 | 0.00 | 86 | 1008.0 |
| 20260903053202 | 83 | 144 | 1.0 | 4.0 | 0.00 | 0.00 | 0.00 | 86 | 1008.1 |
| 20260903053102 | 83 | 141 | 2.0 | 4.0 | 0.00 | 0.00 | 0.00 | 86 | 1008.0 |
| 20260903053002 | 83 | 140 | 2.0 | 6.0 | 0.00 | 0.00 | 0.00 | 86 | 1008.0 |
| 20260903052901 | 83 | 135 | 2.0 | 6.0 | 0.00 | 0.00 | 0.00 | 86 | 1008.0 |
| 20260903052804 | 83 | 134 | 2.0 | 6.0 | 0.00 | 0.00 | 0.00 | 86 | 1008.0 |
| 20260903052703 | 83 | 152 | 3.0 | 6.0 | 0.00 | 0.00 | 0.00 | 86 | 1008.0 |
| 20260903052603 | 83 | 127 | 2.0 | 6.0 | 0.00 | 0.00 | 0.00 | 86 | 1008.1 |
| 20260903052504 | 83 | 137 | 2.0 | 6.0 | 0.00 | 0.00 | 0.00 | 86 | 1008.1 |
| 20260903052403 | 83 | 138 | 2.0 | 6.0 | 0.00 | 0.00 | 0.00 | 86 | 1008.0 |
| 20260903052306 | 83 | 142 | 2.0 | 6.0 | 0.00 | 0.00 | 0.00 | 85 | 1008.1 |
| 20260903052203 | 83 | 145 | 3.0 | 6.0 | 0.00 | 0.00 | 0.00 | 85 | 1008.1 |
| 20260903052103 | 83 | 128 | 3.0 | 6.0 | 0.00 | 0.00 | 0.00 | 85 | 1008.1 |
| 20260903052004 | 83 | 134 | 2.0 | 6.0 | 0.00 | 0.00 | 0.00 | 85 | 1008.1 |
| 20260903051902 | 83 | 141 | 3.0 | 6.0 | 0.00 | 0.00 | 0.00 | 85 | 1008.2 |
| 20260903051802 | 83 | 176 | 3.0 | 6.0 | 0.00 | 0.00 | 0.00 | 85 | 1008.2 |
| 20260903051704 | 84 | 123 | 2.0 | 4.0 | 0.00 | 0.00 | 0.00 | 85 | 1008.3 |
| 20260903051603 | 84 | 151 | 2.0 | 6.0 | 0.00 | 0.00 | 0.00 | 85 | 1008.4 |
| 20260903051503 | 84 | 149 | 2.0 | 6.0 | 0.00 | 0.00 | 0.00 | 85 | 1008.4 |
| 20260903051402 | 84 | 155 | 2.0 | 6.0 | 0.00 | 0.00 | 0.00 | 84 | 1008.4 |
| 20260903051303 | 84 | 145 | 2.0 | 6.0 | 0.00 | 0.00 | 0.00 | 84 | 1008.4 |
| 20260903051204 | 84 | 145 | 1.0 | 6.0 | 0.00 | 0.00 | 0.00 | 84 | 1008.5 |
| 20260903051104 | 84 | 145 | 2.0 | 6.0 | 0.00 | 0.00 | 0.00 | 84 | 1008.5 |
| 20260903051005 | 84 | 140 | 2.0 | 6.0 | 0.00 | 0.00 | 0.00 | 84 | 1008.6 |
| 20260903050903 | 84 | 140 | 2.0 | 6.0 | 0.00 | 0.00 | 0.00 | 84 | 1008.6 |
| 20260903050802 | 84 | 154 | 3.0 | 6.0 | 0.00 | 0.00 | 0.00 | 85 | 1008.6 |
| 20260903050703 | 84 | 195 | 2.0 | 6.0 | 0.00 | 0.00 | 0.00 | 85 | 1008.6 |
| 20260903050601 | 84 | 140 | 1.0 | 4.0 | 0.00 | 0.00 | 0.00 | 84 | 1008.6 |
| 20260903050502 | 84 | 140 | 1.0 | 4.0 | 0.00 | 0.00 | 0.00 | 84 | 1008.7 |
| 20260903050403 | 84 | 140 | 1.0 | 4.0 | 0.00 | 0.00 | 0.00 | 84 | 1008.7 |
| 20260903050302 | 84 | 138 | 2.0 | 4.0 | 0.00 | 0.00 | 0.00 | 84 | 1008.7 |
| 20260903050202 | 84 | 138 | 2.0 | 4.0 | 0.00 | 0.00 | 0.00 | 84 | 1008.6 |
| 20260903050004 | 84 | 155 | 2.0 | 6.0 | 0.00 | 0.00 | 0.00 | 84 | 1008.8 |
| 20260903045903 | 84 | 130 | 2.0 | 6.0 | 0.00 | 0.00 | 0.00 | 84 | 1008.8 |
| 20260903045802 | 84 | 149 | 2.0 | 6.0 | 0.00 | 0.00 | 0.00 | 84 | 1008.7 |
| 20260903045703 | 84 | 173 | 2.0 | 6.0 | 0.00 | 0.00 | 0.00 | 84 | 1008.8 |
| 20260903045602 | 84 | 152 | 2.0 | 6.0 | 0.00 | 0.00 | 0.00 | 84 | 1008.7 |
| 20260903045504 | 84 | 154 | 2.0 | 6.0 | 0.00 | 0.00 | 0.00 | 84 | 1008.8 |
| 20260903045403 | 84 | 154 | 1.0 | 6.0 | 0.00 | 0.00 | 0.00 | 84 | 1008.8 |
| 20260903045306 | 84 | 155 | 1.0 | 6.0 | 0.00 | 0.00 | 0.00 | 84 | 1008.8 |
| 20260903045204 | 84 | 172 | 2.0 | 6.0 | 0.00 | 0.00 | 0.00 | 84 | 1008.8 |
| 20260903045103 | 84 | 209 | 2.0 | 6.0 | 0.00 | 0.00 | 0.00 | 84 | 1008.9 |
| 20260903045004 | 84 | 148 | 1.0 | 3.0 | 0.00 | 0.00 | 0.00 | 84 | 1008.9 |
| 20260903044902 | 84 | 142 | 1.0 | 3.0 | 0.00 | 0.00 | 0.00 | 84 | 1008.9 |
| 20260903044802 | 84 | 141 | 1.0 | 3.0 | 0.00 | 0.00 | 0.00 | 83 | 1008.9 |
| 20260903044703 | 84 | 141 | 2.0 | 6.0 | 0.00 | 0.00 | 0.00 | 83 | 1008.8 |
| 20260903044603 | 84 | 141 | 2.0 | 6.0 | 0.00 | 0.00 | 0.00 | 83 | 1008.9 |
| 20260903044504 | 84 | 152 | 1.0 | 6.0 | 0.00 | 0.00 | 0.00 | 83 | 1008.8 |
| 20260903044404 | 85 | 135 | 1.0 | 6.0 | 0.00 | 0.00 | 0.00 | 83 | 1008.9 |
| 20260903044305 | 85 | 134 | 1.0 | 6.0 | 0.00 | 0.00 | 0.00 | 83 | 1008.8 |
| 20260903044203 | 85 | 133 | 1.0 | 6.0 | 0.00 | 0.00 | 0.00 | 82 | 1008.8 |
| 20260903044102 | 85 | 133 | 2.0 | 6.0 | 0.00 | 0.00 | 0.00 | 82 | 1008.8 |
| 20260903044002 | 85 | 130 | 2.0 | 6.0 | 0.00 | 0.00 | 0.00 | 82 | 1008.8 |
| 20260903043902 | 85 | 114 | 2.0 | 6.0 | 0.00 | 0.00 | 0.00 | 82 | 1008.8 |
| 20260903043801 | 85 | 104 | 3.0 | 6.0 | 0.00 | 0.00 | 0.00 | 82 | 1008.8 |
| 20260903043703 | 85 | 142 | 2.0 | 4.0 | 0.00 | 0.00 | 0.00 | 82 | 1008.8 |
| 20260903043603 | 85 | 149 | 3.0 | 4.0 | 0.00 | 0.00 | 0.00 | 82 | 1008.8 |
| 20260903043503 | 85 | 171 | 2.0 | 4.0 | 0.00 | 0.00 | 0.00 | 82 | 1008.7 |
| 20260903043402 | 85 | 151 | 2.0 | 5.0 | 0.00 | 0.00 | 0.00 | 82 | 1008.7 |
| 20260903043303 | 85 | 149 | 1.0 | 5.0 | 0.00 | 0.00 | 0.00 | 82 | 1008.7 |
| 20260903043203 | 85 | 151 | 1.0 | 5.0 | 0.00 | 0.00 | 0.00 | 82 | 1008.7 |
| 20260903043102 | 85 | 152 | 1.0 | 5.0 | 0.00 | 0.00 | 0.00 | 82 | 1008.7 |
| 20260903043004 | 85 | 152 | 2.0 | 5.0 | 0.00 | 0.00 | 0.00 | 81 | 1008.7 |
| 20260903042902 | 85 | 154 | 2.0 | 5.0 | 0.00 | 0.00 | 0.00 | 81 | 1008.6 |
| 20260903042804 | 85 | 157 | 2.0 | 5.0 | 0.00 | 0.00 | 0.00 | 81 | 1008.7 |
| 20260903042703 | 85 | 111 | 2.0 | 5.0 | 0.00 | 0.00 | 0.00 | 81 | 1008.7 |
| 20260903042603 | 85 | 104 | 3.0 | 5.0 | 0.00 | 0.00 | 0.00 | 81 | 1008.6 |
| 20260903042502 | 85 | 106 | 3.0 | 5.0 | 0.00 | 0.00 | 0.00 | 81 | 1008.7 |
| 20260903042404 | 85 | 123 | 2.0 | 4.0 | 0.00 | 0.00 | 0.00 | 81 | 1008.7 |
| 20260903042305 | 85 | 145 | 2.0 | 3.0 | 0.00 | 0.00 | 0.00 | 81 | 1008.7 |
| 20260903042204 | 85 | 178 | 0.0 | 3.0 | 0.00 | 0.00 | 0.00 | 81 | 1008.7 |
| 20260903042103 | 85 | 178 | 0.0 | 3.0 | 0.00 | 0.00 | 0.00 | 81 | 1008.7 |
| 20260903042003 | 85 | 179 | 1.0 | 3.0 | 0.00 | 0.00 | 0.00 | 81 | 1008.7 |
| 20260903041904 | 85 | 182 | 0.0 | 3.0 | 0.00 | 0.00 | 0.00 | 81 | 1008.7 |
| 20260903041804 | 85 | 182 | 0.0 | 3.0 | 0.00 | 0.00 | 0.00 | 81 | 1008.7 |
| 20260903041703 | 85 | 182 | 0.0 | 4.0 | 0.00 | 0.00 | 0.00 | 81 | 1008.7 |
| 20260903041604 | 85 | 182 | 1.0 | 4.0 | 0.00 | 0.00 | 0.00 | 81 | 1008.7 |
| 20260903041503 | 85 | 182 | 2.0 | 4.0 | 0.00 | 0.00 | 0.00 | 81 | 1008.8 |
| 20260903041403 | 85 | 183 | 2.0 | 4.0 | 0.00 | 0.00 | 0.00 | 81 | 1008.8 |
| 20260903041302 | 85 | 196 | 2.0 | 4.0 | 0.00 | 0.00 | 0.00 | 81 | 1008.7 |
| 20260903041203 | 85 | 210 | 2.0 | 4.0 | 0.00 | 0.00 | 0.00 | 81 | 1008.7 |
| 20260903041103 | 85 | 244 | 1.0 | 4.0 | 0.00 | 0.00 | 0.00 | 81 | 1008.7 |
| 20260903041002 | 85 | 151 | 1.0 | 4.0 | 0.00 | 0.00 | 0.00 | 81 | 1008.7 |
| 20260903040902 | 85 | 149 | 2.0 | 4.0 | 0.00 | 0.00 | 0.00 | 81 | 1008.6 |
| 20260903040804 | 85 | 154 | 2.0 | 4.0 | 0.00 | 0.00 | 0.00 | 81 | 1008.7 |
| 20260903040704 | 85 | 148 | 1.0 | 3.0 | 0.00 | 0.00 | 0.00 | 81 | 1008.6 |
| 20260903040604 | 85 | 148 | 1.0 | 6.0 | 0.00 | 0.00 | 0.00 | 81 | 1008.5 |
| 20260903040504 | 85 | 148 | 1.0 | 7.0 | 0.00 | 0.00 | 0.00 | 81 | 1008.6 |
| 20260903040402 | 85 | 140 | 1.0 | 7.0 | 0.00 | 0.00 | 0.00 | 81 | 1008.6 |
| 20260903040303 | 85 | 128 | 0.0 | 7.0 | 0.00 | 0.00 | 0.00 | 81 | 1008.6 |
| 20260903040204 | 85 | 128 | 0.0 | 7.0 | 0.00 | 0.00 | 0.00 | 81 | 1008.6 |
| 20260903040001 | 85 | 128 | 2.0 | 7.0 | 0.00 | 0.00 | 0.00 | 81 | 1008.5 |
| 20260903035903 | 85 | 133 | 2.0 | 7.0 | 0.00 | 0.00 | 0.00 | 81 | 1008.5 |
| 20260903035803 | 85 | 134 | 3.0 | 9.0 | 0.00 | 0.00 | 0.00 | 81 | 1008.5 |
| 20260903035704 | 85 | 128 | 5.0 | 9.0 | 0.00 | 0.00 | 0.00 | 81 | 1008.4 |
| 20260903035602 | 85 | 121 | 4.0 | 9.0 | 0.00 | 0.00 | 0.00 | 81 | 1008.4 |
| 20260903035504 | 85 | 123 | 3.0 | 9.0 | 0.00 | 0.00 | 0.00 | 81 | 1008.4 |
| 20260903035403 | 85 | 120 | 3.0 | 9.0 | 0.00 | 0.00 | 0.00 | 81 | 1008.4 |
| 20260903035306 | 85 | 151 | 3.0 | 9.0 | 0.00 | 0.00 | 0.00 | 81 | 1008.4 |
| 20260903035203 | 85 | 137 | 3.0 | 9.0 | 0.00 | 0.00 | 0.00 | 81 | 1008.3 |
| 20260903035102 | 85 | 159 | 4.0 | 9.0 | 0.00 | 0.00 | 0.00 | 81 | 1008.3 |
| 20260903035002 | 85 | 166 | 5.0 | 9.0 | 0.00 | 0.00 | 0.00 | 81 | 1008.2 |
| 20260903034903 | 85 | 120 | 5.0 | 9.0 | 0.00 | 0.00 | 0.00 | 81 | 1008.1 |
| 20260903034803 | 85 | 110 | 5.0 | 9.0 | 0.00 | 0.00 | 0.00 | 81 | 1008.1 |
| 20260903034704 | 85 | 127 | 5.0 | 9.0 | 0.00 | 0.00 | 0.00 | 81 | 1008.0 |
| 20260903034603 | 85 | 120 | 5.0 | 9.0 | 0.00 | 0.00 | 0.00 | 81 | 1008.1 |
| 20260903034505 | 85 | 142 | 3.0 | 7.0 | 0.00 | 0.00 | 0.00 | 81 | 1008.1 |
| 20260903034401 | 85 | 152 | 3.0 | 9.0 | 0.00 | 0.00 | 0.00 | 81 | 1008.0 |
| 20260903034304 | 85 | 128 | 3.0 | 9.0 | 0.00 | 0.00 | 0.00 | 80 | 1008.1 |
| 20260903034202 | 85 | 130 | 3.0 | 11.0 | 0.00 | 0.00 | 0.00 | 80 | 1008.0 |
| 20260903034102 | 85 | 127 | 4.0 | 11.0 | 0.00 | 0.00 | 0.00 | 80 | 1008.0 |
| 20260903034003 | 85 | 107 | 5.0 | 11.0 | 0.00 | 0.00 | 0.00 | 80 | 1008.0 |
| 20260903033902 | 85 | 113 | 3.0 | 11.0 | 0.00 | 0.00 | 0.00 | 80 | 1008.1 |
| 20260903033803 | 85 | 127 | 4.0 | 11.0 | 0.00 | 0.00 | 0.00 | 80 | 1008.0 |
| 20260903033702 | 85 | 121 | 4.0 | 11.0 | 0.00 | 0.00 | 0.00 | 80 | 1008.0 |
| 20260903033604 | 85 | 117 | 5.0 | 11.0 | 0.00 | 0.00 | 0.00 | 80 | 1008.1 |
| 20260903033504 | 85 | 102 | 6.0 | 11.0 | 0.00 | 0.00 | 0.00 | 80 | 1008.0 |
| 20260903033403 | 85 | 103 | 6.0 | 11.0 | 0.00 | 0.00 | 0.00 | 80 | 1008.1 |
| 20260903033302 | 85 | 100 | 3.0 | 11.0 | 0.00 | 0.00 | 0.00 | 80 | 1008.1 |
| 20260903033203 | 85 | 134 | 3.0 | 9.0 | 0.00 | 0.00 | 0.00 | 80 | 1008.0 |
| 20260903033103 | 85 | 133 | 4.0 | 9.0 | 0.00 | 0.00 | 0.00 | 80 | 1008.1 |
| 20260903033002 | 85 | 155 | 4.0 | 9.0 | 0.00 | 0.00 | 0.00 | 80 | 1008.0 |
| 20260903032903 | 85 | 123 | 4.0 | 11.0 | 0.00 | 0.00 | 0.00 | 80 | 1008.1 |
| 20260903032802 | 85 | 113 | 4.0 | 11.0 | 0.00 | 0.00 | 0.00 | 80 | 1008.0 |
| 20260903032702 | 85 | 117 | 4.0 | 11.0 | 0.00 | 0.00 | 0.00 | 80 | 1008.0 |
| 20260903032603 | 85 | 113 | 4.0 | 11.0 | 0.00 | 0.00 | 0.00 | 80 | 1008.0 |
| 20260903032502 | 85 | 116 | 5.0 | 11.0 | 0.00 | 0.00 | 0.00 | 80 | 1008.0 |
| 20260903032402 | 85 | 114 | 5.0 | 11.0 | 0.00 | 0.00 | 0.00 | 80 | 1007.9 |
| 20260903032306 | 85 | 107 | 6.0 | 11.0 | 0.00 | 0.00 | 0.00 | 79 | 1007.9 |
| 20260903032202 | 85 | 109 | 6.0 | 11.0 | 0.00 | 0.00 | 0.00 | 79 | 1007.9 |
| 20260903032104 | 85 | 127 | 5.0 | 11.0 | 0.00 | 0.00 | 0.00 | 79 | 1007.9 |
| 20260903032003 | 85 | 107 | 4.0 | 11.0 | 0.00 | 0.00 | 0.00 | 79 | 1007.9 |
| 20260903031903 | 85 | 130 | 4.0 | 9.0 | 0.00 | 0.00 | 0.00 | 79 | 1007.9 |
| 20260903031753 | 85 | 162 | 5.0 | 11.0 | 0.00 | 0.00 | 0.00 | 79 | 1007.9 |
| 20260903031652 | 85 | 172 | 5.0 | 11.0 | 0.00 | 0.00 | 0.00 | 79 | 1007.9 |
| 20260903031550 | 85 | 133 | 5.0 | 11.0 | 0.00 | 0.00 | 0.00 | 79 | 1007.9 |
| 20260903031448 | 85 | 127 | 5.0 | 11.0 | 0.00 | 0.00 | 0.00 | 79 | 1007.9 |
| 20260903031348 | 85 | 118 | 5.0 | 11.0 | 0.00 | 0.00 | 0.00 | 79 | 1007.8 |
| 20260903031241 | 85 | 102 | 6.0 | 11.0 | 0.00 | 0.00 | 0.00 | 79 | 1007.8 |
| 20260903031135 | 85 | 149 | 5.0 | 11.0 | 0.00 | 0.00 | 0.00 | 78 | 1007.8 |
| 20260903031032 | 85 | 113 | 5.0 | 11.0 | 0.00 | 0.00 | 0.00 | 78 | 1007.8 |
| 20260903030932 | 85 | 128 | 6.0 | 11.0 | 0.00 | 0.00 | 0.00 | 78 | 1007.8 |
| 20260903030833 | 85 | 103 | 5.0 | 11.0 | 0.00 | 0.00 | 0.00 | 78 | 1007.7 |
| 20260903030731 | 85 | 213 | 3.0 | 10.0 | 0.00 | 0.00 | 0.00 | 78 | 1007.8 |
| 20260903030632 | 85 | 123 | 4.0 | 10.0 | 0.00 | 0.00 | 0.00 | 78 | 1007.7 |
| 20260903030530 | 85 | 130 | 5.0 | 10.0 | 0.00 | 0.00 | 0.00 | 77 | 1007.7 |
| 20260903030432 | 85 | 137 | 5.0 | 9.0 | 0.00 | 0.00 | 0.00 | 77 | 1007.7 |
| 20260903030328 | 85 | 131 | 4.0 | 9.0 | 0.00 | 0.00 | 0.00 | 77 | 1007.6 |
| 20260903030226 | 85 | 118 | 5.0 | 9.0 | 0.00 | 0.00 | 0.00 | 77 | 1007.7 |
| 20260903030125 | 85 | 142 | 5.0 | 9.0 | 0.00 | 0.00 | 0.00 | 77 | 1007.7 |
| 20260903030023 | 85 | 111 | 5.0 | 9.0 | 0.00 | 0.00 | 0.00 | 77 | 1007.6 |
| 20260903025922 | 85 | 125 | 6.0 | 9.0 | 0.00 | 0.00 | 0.00 | 77 | 1007.7 |
| 20260903025823 | 85 | 100 | 6.0 | 9.0 | 0.00 | 0.00 | 0.00 | 76 | 1007.6 |
| 20260903025721 | 85 | 104 | 5.0 | 9.0 | 0.00 | 0.00 | 0.00 | 76 | 1007.5 |
| 20260903025621 | 85 | 117 | 4.0 | 9.0 | 0.00 | 0.00 | 0.00 | 76 | 1007.6 |
| 20260903025522 | 85 | 128 | 5.0 | 9.0 | 0.00 | 0.00 | 0.00 | 76 | 1007.5 |
| 20260903025421 | 85 | 123 | 4.0 | 9.0 | 0.00 | 0.00 | 0.00 | 76 | 1007.4 |
| 20260903025321 | 85 | 113 | 3.0 | 11.0 | 0.00 | 0.00 | 0.00 | 76 | 1007.5 |
| 20260903025222 | 85 | 148 | 4.0 | 11.0 | 0.00 | 0.00 | 0.00 | 76 | 1007.5 |
| 20260903025121 | 86 | 110 | 4.0 | 11.0 | 0.00 | 0.00 | 0.00 | 75 | 1007.5 |
| 20260903025021 | 86 | 127 | 3.0 | 13.0 | 0.00 | 0.00 | 0.00 | 75 | 1007.5 |
| 20260903024922 | 86 | 110 | 3.0 | 13.0 | 0.00 | 0.00 | 0.00 | 75 | 1007.6 |
| 20260903024821 | 86 | 152 | 4.0 | 13.0 | 0.00 | 0.00 | 0.00 | 75 | 1007.5 |
| 20260903024722 | 86 | 140 | 5.0 | 13.0 | 0.00 | 0.00 | 0.00 | 75 | 1007.5 |
| 20260903024621 | 86 | 97 | 5.0 | 13.0 | 0.00 | 0.00 | 0.00 | 75 | 1007.4 |
| 20260903024520 | 86 | 109 | 6.0 | 13.0 | 0.00 | 0.00 | 0.00 | 75 | 1007.4 |
| 20260903024423 | 86 | 125 | 7.0 | 13.0 | 0.00 | 0.00 | 0.00 | 75 | 1007.3 |
| 20260903024320 | 86 | 120 | 6.0 | 13.0 | 0.00 | 0.00 | 0.00 | 75 | 1007.3 |
| 20260903024222 | 86 | 131 | 7.0 | 13.0 | 0.00 | 0.00 | 0.00 | 75 | 1007.4 |
| 20260903024122 | 86 | 116 | 8.0 | 13.0 | 0.00 | 0.00 | 0.00 | 75 | 1007.3 |
| 20260903024022 | 86 | 130 | 7.0 | 12.0 | 0.00 | 0.00 | 0.00 | 75 | 1007.3 |
| 20260903023921 | 86 | 120 | 6.0 | 12.0 | 0.00 | 0.00 | 0.00 | 75 | 1007.3 |
| 20260903023823 | 86 | 111 | 6.0 | 11.0 | 0.00 | 0.00 | 0.00 | 74 | 1007.3 |
| 20260903023721 | 86 | 97 | 5.0 | 11.0 | 0.00 | 0.00 | 0.00 | 74 | 1007.3 |
| 20260903023620 | 86 | 102 | 4.0 | 11.0 | 0.00 | 0.00 | 0.00 | 74 | 1007.2 |
| 20260903023522 | 86 | 142 | 4.0 | 11.0 | 0.00 | 0.00 | 0.00 | 74 | 1007.2 |
| 20260903023421 | 86 | 113 | 6.0 | 11.0 | 0.00 | 0.00 | 0.00 | 74 | 1007.2 |
| 20260903023321 | 86 | 109 | 6.0 | 11.0 | 0.00 | 0.00 | 0.00 | 74 | 1007.1 |
| 20260903023222 | 86 | 97 | 6.0 | 11.0 | 0.00 | 0.00 | 0.00 | 73 | 1007.1 |
| 20260903023120 | 86 | 120 | 7.0 | 11.0 | 0.00 | 0.00 | 0.00 | 73 | 1007.1 |
| 20260903023022 | 86 | 120 | 8.0 | 11.0 | 0.00 | 0.00 | 0.00 | 73 | 1007.0 |
| 20260903022917 | 86 | 120 | 7.0 | 11.0 | 0.00 | 0.00 | 0.00 | 73 | 1006.9 |
| 20260903022815 | 86 | 104 | 6.0 | 11.0 | 0.00 | 0.00 | 0.00 | 73 | 1007.0 |
| 20260903022714 | 86 | 107 | 6.0 | 11.0 | 0.00 | 0.00 | 0.00 | 73 | 1006.9 |
| 20260903022613 | 86 | 106 | 5.0 | 7.0 | 0.00 | 0.00 | 0.00 | 73 | 1007.0 |
| 20260903022509 | 86 | 109 | 4.0 | 11.0 | 0.00 | 0.00 | 0.00 | 73 | 1007.0 |
| 20260903022408 | 86 | 123 | 5.0 | 11.0 | 0.00 | 0.00 | 0.00 | 73 | 1007.0 |
| 20260903022306 | 86 | 111 | 4.0 | 11.0 | 0.00 | 0.00 | 0.00 | 73 | 1007.0 |
| 20260903022203 | 86 | 151 | 4.0 | 11.0 | 0.00 | 0.00 | 0.00 | 73 | 1007.0 |
| 20260903022104 | 86 | 140 | 4.0 | 11.0 | 0.00 | 0.00 | 0.00 | 73 | 1007.0 |
| 20260903022004 | 86 | 133 | 5.0 | 11.0 | 0.00 | 0.00 | 0.00 | 73 | 1007.0 |
| 20260903021902 | 86 | 106 | 5.0 | 11.0 | 0.00 | 0.00 | 0.00 | 73 | 1007.0 |
| 20260903021801 | 86 | 124 | 5.0 | 11.0 | 0.00 | 0.00 | 0.00 | 73 | 1007.0 |
| 20260903021644 | 86 | 138 | 5.0 | 11.0 | 0.00 | 0.00 | 0.00 | 73 | 1007.0 |
| 20260903021533 | 86 | 96 | 4.0 | 13.0 | 0.00 | 0.00 | 0.00 | 73 | 1006.9 |
| 20260903021431 | 86 | 135 | 5.0 | 13.0 | 0.00 | 0.00 | 0.00 | 73 | 1006.9 |
| 20260903021333 | 86 | 109 | 5.0 | 13.0 | 0.00 | 0.00 | 0.00 | 73 | 1007.0 |
| 20260903021232 | 87 | 113 | 4.0 | 13.0 | 0.00 | 0.00 | 0.00 | 73 | 1007.0 |
| 20260903021131 | 87 | 145 | 4.0 | 13.0 | 0.00 | 0.00 | 0.00 | 73 | 1007.0 |
| 20260903021032 | 87 | 124 | 5.0 | 13.0 | 0.00 | 0.00 | 0.00 | 73 | 1007.0 |
| 20260903020931 | 87 | 147 | 6.0 | 13.0 | 0.00 | 0.00 | 0.00 | 73 | 1007.0 |
| 20260903020832 | 87 | 128 | 8.0 | 13.0 | 0.00 | 0.00 | 0.00 | 73 | 1007.0 |
| 20260903020726 | 87 | 113 | 7.0 | 13.0 | 0.00 | 0.00 | 0.00 | 73 | 1007.0 |
| 20260903020621 | 87 | 109 | 6.0 | 13.0 | 0.00 | 0.00 | 0.00 | 72 | 1007.0 |
| 20260903020521 | 87 | 186 | 6.0 | 14.0 | 0.00 | 0.00 | 0.00 | 72 | 1006.9 |
| 20260903020420 | 87 | 118 | 6.0 | 14.0 | 0.00 | 0.00 | 0.00 | 72 | 1006.9 |
| 20260903020320 | 87 | 128 | 6.0 | 14.0 | 0.00 | 0.00 | 0.00 | 72 | 1006.9 |
| 20260903020219 | 87 | 111 | 7.0 | 14.0 | 0.00 | 0.00 | 0.00 | 72 | 1006.9 |
| 20260903020119 | 87 | 118 | 8.0 | 17.0 | 0.00 | 0.00 | 0.00 | 72 | 1006.8 |
| 20260903020020 | 87 | 125 | 7.0 | 17.0 | 0.00 | 0.00 | 0.00 | 72 | 1006.6 |
| 20260903015921 | 87 | 121 | 8.0 | 17.0 | 0.00 | 0.00 | 0.00 | 72 | 1006.6 |
| 20260903015821 | 87 | 102 | 9.0 | 17.0 | 0.00 | 0.00 | 0.00 | 71 | 1006.7 |
| 20260903015721 | 87 | 102 | 9.0 | 17.0 | 0.00 | 0.00 | 0.00 | 71 | 1006.7 |
| 20260903015620 | 87 | 134 | 8.0 | 17.0 | 0.00 | 0.00 | 0.00 | 71 | 1006.7 |
| 20260903015521 | 87 | 103 | 8.0 | 17.0 | 0.00 | 0.00 | 0.00 | 71 | 1006.7 |
| 20260903015421 | 87 | 127 | 9.0 | 17.0 | 0.00 | 0.00 | 0.00 | 71 | 1006.7 |
| 20260903015321 | 87 | 97 | 9.0 | 17.0 | 0.00 | 0.00 | 0.00 | 71 | 1006.7 |
| 20260903015219 | 87 | 116 | 8.0 | 17.0 | 0.00 | 0.00 | 0.00 | 70 | 1006.6 |
| 20260903015120 | 87 | 106 | 7.0 | 17.0 | 0.00 | 0.00 | 0.00 | 70 | 1006.6 |
| 20260903015021 | 87 | 130 | 7.0 | 17.0 | 0.00 | 0.00 | 0.00 | 70 | 1006.6 |
| 20260903014920 | 87 | 175 | 6.0 | 12.0 | 0.00 | 0.00 | 0.00 | 70 | 1006.6 |
| 20260903014820 | 88 | 114 | 7.0 | 12.0 | 0.00 | 0.00 | 0.00 | 70 | 1006.5 |
| 20260903014719 | 88 | 157 | 7.0 | 12.0 | 0.00 | 0.00 | 0.00 | 70 | 1006.5 |
| 20260903014620 | 88 | 114 | 8.0 | 12.0 | 0.00 | 0.00 | 0.00 | 70 | 1006.5 |
| 20260903014520 | 88 | 114 | 7.0 | 11.0 | 0.00 | 0.00 | 0.00 | 70 | 1006.5 |
| 20260903014421 | 88 | 109 | 6.0 | 11.0 | 0.00 | 0.00 | 0.00 | 70 | 1006.5 |
| 20260903014321 | 88 | 114 | 7.0 | 11.0 | 0.00 | 0.00 | 0.00 | 70 | 1006.5 |
| 20260903014221 | 88 | 100 | 7.0 | 11.0 | 0.00 | 0.00 | 0.00 | 69 | 1006.5 |
| 20260903014119 | 88 | 82 | 7.0 | 11.0 | 0.00 | 0.00 | 0.00 | 69 | 1006.4 |
| 20260903014021 | 88 | 116 | 8.0 | 11.0 | 0.00 | 0.00 | 0.00 | 69 | 1006.4 |
| 20260903013921 | 88 | 135 | 6.0 | 11.0 | 0.00 | 0.00 | 0.00 | 69 | 1006.5 |
| 20260903013820 | 88 | 135 | 6.0 | 11.0 | 0.00 | 0.00 | 0.00 | 69 | 1006.4 |
| 20260903013720 | 88 | 135 | 6.0 | 11.0 | 0.00 | 0.00 | 0.00 | 69 | 1006.4 |
| 20260903013620 | 88 | 134 | 6.0 | 11.0 | 0.00 | 0.00 | 0.00 | 69 | 1006.4 |
| 20260903013521 | 88 | 117 | 4.0 | 10.0 | 0.00 | 0.00 | 0.00 | 69 | 1006.4 |
| 20260903013420 | 88 | 111 | 6.0 | 10.0 | 0.00 | 0.00 | 0.00 | 69 | 1006.5 |
| 20260903013320 | 88 | 111 | 6.0 | 10.0 | 0.00 | 0.00 | 0.00 | 69 | 1006.4 |
| 20260903013218 | 88 | 107 | 6.0 | 10.0 | 0.00 | 0.00 | 0.00 | 69 | 1006.4 |
| 20260903013120 | 88 | 96 | 6.0 | 10.0 | 0.00 | 0.00 | 0.00 | 68 | 1006.4 |
| 20260903013020 | 88 | 103 | 6.0 | 10.0 | 0.00 | 0.00 | 0.00 | 68 | 1006.3 |
| 20260903012921 | 88 | 94 | 4.0 | 7.0 | 0.00 | 0.00 | 0.00 | 68 | 1006.4 |
| 20260903012821 | 88 | 149 | 4.0 | 7.0 | 0.00 | 0.00 | 0.00 | 68 | 1006.3 |
| 20260903012721 | 88 | 145 | 4.0 | 7.0 | 0.00 | 0.00 | 0.00 | 68 | 1006.3 |
| 20260903012620 | 88 | 148 | 4.0 | 13.0 | 0.00 | 0.00 | 0.00 | 68 | 1006.3 |
| 20260903012519 | 88 | 124 | 4.0 | 13.0 | 0.00 | 0.00 | 0.00 | 68 | 1006.3 |
| 20260903012419 | 88 | 125 | 4.0 | 13.0 | 0.00 | 0.00 | 0.00 | 67 | 1006.2 |
| 20260903012319 | 89 | 128 | 4.0 | 13.0 | 0.00 | 0.00 | 0.00 | 67 | 1006.2 |
| 20260903012219 | 89 | 138 | 3.0 | 13.0 | 0.00 | 0.00 | 0.00 | 67 | 1006.3 |
| 20260903012119 | 89 | 166 | 3.0 | 13.0 | 0.00 | 0.00 | 0.00 | 67 | 1006.2 |
| 20260903012018 | 89 | 140 | 2.0 | 13.0 | 0.00 | 0.00 | 0.00 | 67 | 1006.2 |
| 20260903011919 | 89 | 157 | 4.0 | 13.0 | 0.00 | 0.00 | 0.00 | 67 | 1006.2 |
| 20260903011819 | 89 | 130 | 6.0 | 13.0 | 0.00 | 0.00 | 0.00 | 67 | 1006.2 |
| 20260903011719 | 89 | 171 | 6.0 | 13.0 | 0.00 | 0.00 | 0.00 | 67 | 1006.1 |
| 20260903011619 | 89 | 134 | 5.0 | 12.0 | 0.00 | 0.00 | 0.00 | 67 | 1006.1 |
| 20260903011519 | 89 | 125 | 5.0 | 12.0 | 0.00 | 0.00 | 0.00 | 66 | 1006.0 |
| 20260903011418 | 89 | 142 | 6.0 | 12.0 | 0.00 | 0.00 | 0.00 | 66 | 1006.0 |
| 20260903011319 | 89 | 141 | 6.0 | 12.0 | 0.00 | 0.00 | 0.00 | 66 | 1006.0 |
| 20260903011219 | 89 | 135 | 5.0 | 12.0 | 0.00 | 0.00 | 0.00 | 66 | 1006.0 |
| 20260903011119 | 89 | 173 | 6.0 | 12.0 | 0.00 | 0.00 | 0.00 | 66 | 1006.0 |
| 20260903011020 | 89 | 175 | 6.0 | 12.0 | 0.00 | 0.00 | 0.00 | 66 | 1006.1 |
| 20260903010919 | 89 | 178 | 5.0 | 12.0 | 0.00 | 0.00 | 0.00 | 65 | 1006.0 |
| 20260903010819 | 89 | 169 | 6.0 | 12.0 | 0.00 | 0.00 | 0.00 | 65 | 1006.0 |
| 20260903010718 | 89 | 140 | 6.0 | 14.0 | 0.00 | 0.00 | 0.00 | 65 | 1006.1 |
| 20260903010620 | 89 | 128 | 5.0 | 14.0 | 0.00 | 0.00 | 0.00 | 65 | 1006.0 |
| 20260903010519 | 89 | 166 | 5.0 | 14.0 | 0.00 | 0.00 | 0.00 | 65 | 1006.1 |
| 20260903010418 | 89 | 151 | 4.0 | 14.0 | 0.00 | 0.00 | 0.00 | 65 | 1006.1 |
| 20260903010319 | 89 | 134 | 4.0 | 14.0 | 0.00 | 0.00 | 0.00 | 65 | 1006.1 |
| 20260903010218 | 89 | 123 | 5.0 | 14.0 | 0.00 | 0.00 | 0.00 | 65 | 1006.1 |
| 20260903010119 | 89 | 158 | 5.0 | 14.0 | 0.00 | 0.00 | 0.00 | 65 | 1006.1 |
| 20260903010019 | 89 | 127 | 5.0 | 14.0 | 0.00 | 0.00 | 0.00 | 65 | 1006.0 |
| 20260903005920 | 89 | 120 | 6.0 | 14.0 | 0.00 | 0.00 | 0.00 | 64 | 1006.0 |
| 20260903005819 | 89 | 182 | 7.0 | 14.0 | 0.00 | 0.00 | 0.00 | 64 | 1006.0 |
| 20260903005718 | 89 | 103 | 6.0 | 14.0 | 0.00 | 0.00 | 0.00 | 64 | 1005.9 |
| 20260903005619 | 90 | 133 | 5.0 | 14.0 | 0.00 | 0.00 | 0.00 | 64 | 1005.8 |
| 20260903005521 | 90 | 109 | 7.0 | 14.0 | 0.00 | 0.00 | 0.00 | 63 | 1005.8 |
| 20260903005421 | 90 | 128 | 9.0 | 14.0 | 0.00 | 0.00 | 0.00 | 63 | 1005.8 |
| 20260903005318 | 90 | 202 | 9.0 | 14.0 | 0.00 | 0.00 | 0.00 | 63 | 1005.8 |
| 20260903005218 | 90 | 116 | 7.0 | 14.0 | 0.00 | 0.00 | 0.00 | 63 | 1005.7 |
| 20260903005120 | 90 | 117 | 5.0 | 12.0 | 0.00 | 0.00 | 0.00 | 63 | 1005.7 |
| 20260903005020 | 90 | 172 | 4.0 | 12.0 | 0.00 | 0.00 | 0.00 | 62 | 1005.7 |
| 20260903004918 | 90 | 161 | 6.0 | 12.0 | 0.00 | 0.00 | 0.00 | 62 | 1005.6 |
| 20260903004819 | 90 | 162 | 7.0 | 12.0 | 0.00 | 0.00 | 0.00 | 62 | 1005.6 |
| 20260903004718 | 90 | 114 | 6.0 | 12.0 | 0.00 | 0.00 | 0.00 | 62 | 1005.6 |
| 20260903004617 | 90 | 154 | 4.0 | 12.0 | 0.00 | 0.00 | 0.00 | 62 | 1005.6 |
| 20260903004519 | 90 | 135 | 4.0 | 12.0 | 0.00 | 0.00 | 0.00 | 62 | 1005.6 |
| 20260903004419 | 90 | 152 | 6.0 | 12.0 | 0.00 | 0.00 | 0.00 | 62 | 1005.6 |
| 20260903004319 | 90 | 169 | 5.0 | 12.0 | 0.00 | 0.00 | 0.00 | 62 | 1005.5 |
| 20260903004218 | 90 | 212 | 4.0 | 12.0 | 0.00 | 0.00 | 0.00 | 61 | 1005.6 |
| 20260903004119 | 90 | 149 | 5.0 | 12.0 | 0.00 | 0.00 | 0.00 | 61 | 1005.6 |
| 20260903004019 | 90 | 130 | 6.0 | 12.0 | 0.00 | 0.00 | 0.00 | 61 | 1005.7 |
| 20260903003916 | 91 | 172 | 6.0 | 12.0 | 0.00 | 0.00 | 0.00 | 61 | 1005.7 |
| 20260903003813 | 91 | 155 | 7.0 | 12.0 | 0.00 | 0.00 | 0.00 | 61 | 1005.5 |
| 20260903003708 | 91 | 147 | 7.0 | 12.0 | 0.00 | 0.00 | 0.00 | 61 | 1005.6 |
| 20260903003606 | 91 | 137 | 6.0 | 12.0 | 0.00 | 0.00 | 0.00 | 61 | 1005.5 |
| 20260903003503 | 91 | 157 | 6.0 | 12.0 | 0.00 | 0.00 | 0.00 | 61 | 1005.4 |
| 20260903003404 | 91 | 147 | 7.0 | 12.0 | 0.00 | 0.00 | 0.00 | 61 | 1005.4 |
| 20260903003302 | 91 | 142 | 5.0 | 12.0 | 0.00 | 0.00 | 0.00 | 61 | 1005.5 |
| 20260903003204 | 91 | 162 | 5.0 | 12.0 | 0.00 | 0.00 | 0.00 | 61 | 1005.4 |
| 20260903003104 | 91 | 159 | 5.0 | 12.0 | 0.00 | 0.00 | 0.00 | 61 | 1005.4 |
| 20260903003005 | 91 | 168 | 4.0 | 12.0 | 0.00 | 0.00 | 0.00 | 62 | 1005.5 |
| 20260903002903 | 91 | 168 | 4.0 | 12.0 | 0.00 | 0.00 | 0.00 | 62 | 1005.4 |
| 20260903002802 | 91 | 147 | 4.0 | 12.0 | 0.00 | 0.00 | 0.00 | 62 | 1005.4 |
| 20260903002705 | 91 | 165 | 4.0 | 12.0 | 0.00 | 0.00 | 0.00 | 62 | 1005.4 |
| 20260903002602 | 91 | 185 | 5.0 | 12.0 | 0.00 | 0.00 | 0.00 | 62 | 1005.3 |
| 20260903002506 | 91 | 159 | 6.0 | 14.0 | 0.00 | 0.00 | 0.00 | 61 | 1005.3 |
| 20260903002404 | 91 | 173 | 6.0 | 14.0 | 0.00 | 0.00 | 0.00 | 61 | 1005.3 |
| 20260903002306 | 91 | 138 | 5.0 | 14.0 | 0.00 | 0.00 | 0.00 | 61 | 1005.3 |
| 20260903002202 | 91 | 149 | 5.0 | 14.0 | 0.00 | 0.00 | 0.00 | 61 | 1005.2 |
| 20260903002104 | 91 | 133 | 7.0 | 14.0 | 0.00 | 0.00 | 0.00 | 61 | 1005.3 |
| 20260903002003 | 91 | 151 | 7.0 | 14.0 | 0.00 | 0.00 | 0.00 | 61 | 1005.2 |
| 20260903001903 | 91 | 159 | 6.0 | 14.0 | 0.00 | 0.00 | 0.00 | 61 | 1005.2 |
| 20260903001804 | 91 | 172 | 5.0 | 14.0 | 0.00 | 0.00 | 0.00 | 61 | 1005.2 |
| 20260903001704 | 91 | 176 | 6.0 | 14.0 | 0.00 | 0.00 | 0.00 | 61 | 1005.2 |
| 20260903001603 | 91 | 175 | 5.0 | 14.0 | 0.00 | 0.00 | 0.00 | 61 | 1005.2 |
| 20260903001506 | 92 | 142 | 4.0 | 14.0 | 0.00 | 0.00 | 0.00 | 61 | 1005.1 |
| 20260903001404 | 92 | 145 | 6.0 | 14.0 | 0.00 | 0.00 | 0.00 | 61 | 1005.1 |
| 20260903001302 | 92 | 144 | 8.0 | 14.0 | 0.00 | 0.00 | 0.00 | 61 | 1005.1 |
| 20260903001203 | 92 | 162 | 8.0 | 14.0 | 0.00 | 0.00 | 0.00 | 61 | 1005.0 |
| 20260903001103 | 92 | 131 | 4.0 | 12.0 | 0.00 | 0.00 | 0.00 | 61 | 1005.0 |
| 20260903001003 | 92 | 124 | 4.0 | 14.0 | 0.00 | 0.00 | 0.00 | 61 | 1005.0 |
| 20260903000903 | 92 | 171 | 4.0 | 14.0 | 0.00 | 0.00 | 0.00 | 61 | 1005.0 |
| 20260903000804 | 92 | 204 | 4.0 | 14.0 | 0.00 | 0.00 | 0.00 | 61 | 1004.9 |
| 20260903000702 | 92 | 165 | 5.0 | 14.0 | 0.00 | 0.00 | 0.00 | 61 | 1005.0 |
| 20260903000603 | 92 | 121 | 6.0 | 14.0 | 0.00 | 0.00 | 0.00 | 60 | 1005.1 |
| 20260903000504 | 92 | 175 | 6.0 | 14.0 | 0.00 | 0.00 | 0.00 | 60 | 1005.1 |
| 20260903000402 | 92 | 213 | 6.0 | 14.0 | 0.00 | 0.00 | 0.00 | 60 | 1005.1 |
| 20260903000304 | 92 | 145 | 6.0 | 14.0 | 0.00 | 0.00 | 0.00 | 60 | 1005.0 |
| 20260903000204 | 92 | 161 | 8.0 | 14.0 | 0.00 | 0.00 | 0.00 | 60 | 1005.1 |
| 20260903000004 | 92 | 157 | 5.0 | 12.0 | 0.00 | 0.00 | 0.00 | 60 | 1005.1 |
| 20260902235903 | 92 | 138 | 6.0 | 12.0 | 0.00 | 0.00 | 0.00 | 60 | 1005.1 |
| 20260902235803 | 92 | 178 | 7.0 | 12.0 | 0.00 | 0.00 | 0.00 | 60 | 1005.0 |
| 20260902235702 | 92 | 131 | 6.0 | 12.0 | 0.00 | 0.00 | 0.00 | 60 | 1005.0 |
| 20260902235603 | 92 | 172 | 4.0 | 12.0 | 0.00 | 0.00 | 0.00 | 60 | 1005.0 |
| 20260902235504 | 92 | 135 | 6.0 | 12.0 | 0.00 | 0.00 | 0.00 | 60 | 1004.9 |
| 20260902235404 | 92 | 125 | 6.0 | 12.0 | 0.00 | 0.00 | 0.00 | 60 | 1005.0 |
| 20260902235305 | 92 | 155 | 6.0 | 12.0 | 0.00 | 0.00 | 0.00 | 60 | 1004.9 |
| 20260902235202 | 92 | 142 | 6.0 | 12.0 | 0.00 | 0.00 | 0.00 | 60 | 1005.0 |
| 20260902235104 | 92 | 123 | 6.0 | 12.0 | 0.00 | 0.00 | 0.00 | 60 | 1005.0 |
| 20260902235002 | 92 | 127 | 4.0 | 12.0 | 0.00 | 0.00 | 0.00 | 59 | 1005.0 |
| 20260902234903 | 93 | 166 | 4.0 | 12.0 | 0.00 | 0.00 | 0.00 | 59 | 1004.9 |
| 20260902234803 | 93 | 166 | 5.0 | 12.0 | 0.00 | 0.00 | 0.00 | 59 | 1005.0 |
| 20260902234703 | 93 | 138 | 6.0 | 12.0 | 0.00 | 0.00 | 0.00 | 59 | 1004.9 |
| 20260902234604 | 93 | 118 | 6.0 | 12.0 | 0.00 | 0.00 | 0.00 | 59 | 1004.9 |
| 20260902234503 | 93 | 141 | 6.0 | 12.0 | 0.00 | 0.00 | 0.00 | 59 | 1004.9 |
| 20260902234402 | 93 | 168 | 6.0 | 12.0 | 0.00 | 0.00 | 0.00 | 59 | 1004.9 |
| 20260902234304 | 93 | 125 | 6.0 | 12.0 | 0.00 | 0.00 | 0.00 | 59 | 1004.9 |
| 20260902234202 | 93 | 162 | 7.0 | 12.0 | 0.00 | 0.00 | 0.00 | 59 | 1005.0 |
| 20260902234104 | 93 | 134 | 6.0 | 12.0 | 0.00 | 0.00 | 0.00 | 59 | 1004.9 |
| 20260902234005 | 93 | 141 | 5.0 | 12.0 | 0.00 | 0.00 | 0.00 | 59 | 1005.0 |
| 20260902233904 | 93 | 164 | 5.0 | 12.0 | 0.00 | 0.00 | 0.00 | 60 | 1005.0 |
| 20260902233803 | 93 | 157 | 5.0 | 12.0 | 0.00 | 0.00 | 0.00 | 60 | 1005.0 |
| 20260902233703 | 93 | 159 | 5.0 | 11.0 | 0.00 | 0.00 | 0.00 | 60 | 1005.0 |
| 20260902233603 | 93 | 162 | 6.0 | 11.0 | 0.00 | 0.00 | 0.00 | 60 | 1004.9 |
| 20260902233506 | 93 | 172 | 6.0 | 11.0 | 0.00 | 0.00 | 0.00 | 60 | 1004.9 |
| 20260902233403 | 93 | 151 | 6.0 | 11.0 | 0.00 | 0.00 | 0.00 | 60 | 1004.9 |
| 20260902233303 | 93 | 168 | 5.0 | 11.0 | 0.00 | 0.00 | 0.00 | 60 | 1004.8 |
| 20260902233204 | 93 | 141 | 6.0 | 11.0 | 0.00 | 0.00 | 0.00 | 60 | 1005.0 |
| 20260902233103 | 93 | 124 | 6.0 | 11.0 | 0.00 | 0.00 | 0.00 | 60 | 1004.9 |
| 20260902233005 | 94 | 123 | 5.0 | 11.0 | 0.00 | 0.00 | 0.00 | 60 | 1005.0 |
| 20260902232904 | 94 | 183 | 5.0 | 11.0 | 0.00 | 0.00 | 0.00 | 60 | 1005.0 |
| 20260902232803 | 94 | 140 | 6.0 | 12.0 | 0.00 | 0.00 | 0.00 | 60 | 1005.0 |
| 20260902232703 | 94 | 133 | 6.0 | 12.0 | 0.00 | 0.00 | 0.00 | 60 | 1005.1 |
| 20260902232602 | 94 | 148 | 5.0 | 12.0 | 0.00 | 0.00 | 0.00 | 60 | 1005.0 |
| 20260902232506 | 94 | 155 | 4.0 | 12.0 | 0.00 | 0.00 | 0.00 | 60 | 1005.1 |
| 20260902232404 | 94 | 157 | 5.0 | 12.0 | 0.00 | 0.00 | 0.00 | 60 | 1004.9 |
| 20260902232302 | 94 | 171 | 5.0 | 12.0 | 0.00 | 0.00 | 0.00 | 60 | 1004.9 |
| 20260902232203 | 94 | 178 | 5.0 | 12.0 | 0.00 | 0.00 | 0.00 | 60 | 1005.0 |
| 20260902232104 | 94 | 144 | 5.0 | 12.0 | 0.00 | 0.00 | 0.00 | 60 | 1005.0 |
| 20260902232004 | 94 | 164 | 6.0 | 12.0 | 0.00 | 0.00 | 0.00 | 60 | 1005.0 |
| 20260902231904 | 94 | 113 | 6.0 | 12.0 | 0.00 | 0.00 | 0.00 | 60 | 1005.0 |
| 20260902231803 | 94 | 151 | 4.0 | 10.0 | 0.00 | 0.00 | 0.00 | 60 | 1004.9 |
| 20260902231704 | 94 | 142 | 4.0 | 10.0 | 0.00 | 0.00 | 0.00 | 60 | 1004.9 |
| 20260902231605 | 94 | 173 | 4.0 | 14.0 | 0.00 | 0.00 | 0.00 | 60 | 1004.9 |
| 20260902231505 | 94 | 140 | 5.0 | 14.0 | 0.00 | 0.00 | 0.00 | 60 | 1004.9 |
| 20260902231404 | 94 | 137 | 4.0 | 14.0 | 0.00 | 0.00 | 0.00 | 60 | 1004.9 |
| 20260902231302 | 94 | 117 | 4.0 | 14.0 | 0.00 | 0.00 | 0.00 | 60 | 1004.9 |
| 20260902231203 | 94 | 165 | 4.0 | 14.0 | 0.00 | 0.00 | 0.00 | 60 | 1004.8 |
| 20260902231103 | 94 | 172 | 4.0 | 14.0 | 0.00 | 0.00 | 0.00 | 60 | 1004.9 |
| 20260902231003 | 94 | 120 | 4.0 | 14.0 | 0.00 | 0.00 | 0.00 | 60 | 1004.9 |
| 20260902230903 | 94 | 154 | 6.0 | 14.0 | 0.00 | 0.00 | 0.00 | 60 | 1004.9 |
| 20260902230803 | 94 | 118 | 7.0 | 14.0 | 0.00 | 0.00 | 0.00 | 60 | 1004.8 |
| 20260902230703 | 94 | 134 | 8.0 | 14.0 | 0.00 | 0.00 | 0.00 | 60 | 1004.8 |
| 20260902230602 | 94 | 71 | 6.0 | 12.0 | 0.00 | 0.00 | 0.00 | 60 | 1004.8 |
| 20260902230504 | 94 | 124 | 6.0 | 12.0 | 0.00 | 0.00 | 0.00 | 60 | 1004.8 |
| 20260902230403 | 94 | 85 | 6.0 | 12.0 | 0.00 | 0.00 | 0.00 | 60 | 1004.8 |
| 20260902230302 | 94 | 155 | 6.0 | 12.0 | 0.00 | 0.00 | 0.00 | 60 | 1004.8 |
| 20260902230203 | 94 | 140 | 6.0 | 12.0 | 0.00 | 0.00 | 0.00 | 60 | 1004.9 |
| 20260902230003 | 94 | 125 | 6.0 | 13.0 | 0.00 | 0.00 | 0.00 | 60 | 1004.9 |
| 20260902225902 | 94 | 134 | 6.0 | 14.0 | 0.00 | 0.00 | 0.00 | 60 | 1004.8 |
| 20260902225803 | 94 | 147 | 5.0 | 14.0 | 0.00 | 0.00 | 0.00 | 60 | 1004.8 |
| 20260902225704 | 94 | 124 | 6.0 | 14.0 | 0.00 | 0.00 | 0.00 | 60 | 1004.8 |
| 20260902225602 | 94 | 133 | 7.0 | 14.0 | 0.00 | 0.00 | 0.00 | 60 | 1004.8 |
| 20260902225503 | 94 | 186 | 6.0 | 14.0 | 0.00 | 0.00 | 0.00 | 60 | 1004.8 |
| 20260902225404 | 94 | 147 | 5.0 | 14.0 | 0.00 | 0.00 | 0.00 | 60 | 1004.8 |
| 20260902225306 | 95 | 134 | 6.0 | 14.0 | 0.00 | 0.00 | 0.00 | 59 | 1004.8 |
| 20260902225203 | 95 | 140 | 6.0 | 14.0 | 0.00 | 0.00 | 0.00 | 59 | 1004.9 |
| 20260902225103 | 95 | 172 | 7.0 | 14.0 | 0.00 | 0.00 | 0.00 | 59 | 1004.8 |
| 20260902225003 | 95 | 104 | 5.0 | 14.0 | 0.00 | 0.00 | 0.00 | 59 | 1004.8 |
| 20260902224903 | 95 | 179 | 3.0 | 10.0 | 0.00 | 0.00 | 0.00 | 59 | 1004.9 |
| 20260902224803 | 95 | 158 | 4.0 | 10.0 | 0.00 | 0.00 | 0.00 | 59 | 1004.9 |
| 20260902224703 | 95 | 172 | 5.0 | 16.0 | 0.00 | 0.00 | 0.00 | 58 | 1005.0 |
| 20260902224604 | 95 | 159 | 6.0 | 16.0 | 0.00 | 0.00 | 0.00 | 58 | 1004.9 |
| 20260902224502 | 95 | 154 | 5.0 | 16.0 | 0.00 | 0.00 | 0.00 | 58 | 1004.9 |
| 20260902224402 | 95 | 148 | 5.0 | 16.0 | 0.00 | 0.00 | 0.00 | 58 | 1004.9 |
| 20260902224303 | 95 | 148 | 4.0 | 16.0 | 0.00 | 0.00 | 0.00 | 58 | 1004.9 |
| 20260902224204 | 95 | 179 | 4.0 | 16.0 | 0.00 | 0.00 | 0.00 | 58 | 1005.0 |
| 20260902224103 | 95 | 106 | 3.0 | 16.0 | 0.00 | 0.00 | 0.00 | 58 | 1004.9 |
| 20260902224002 | 95 | 204 | 4.0 | 16.0 | 0.00 | 0.00 | 0.00 | 57 | 1004.8 |
| 20260902223903 | 95 | 169 | 6.0 | 16.0 | 0.00 | 0.00 | 0.00 | 57 | 1004.8 |
| 20260902223802 | 95 | 188 | 6.0 | 16.0 | 0.00 | 0.00 | 0.00 | 57 | 1004.8 |
| 20260902223702 | 95 | 130 | 4.0 | 9.0 | 0.00 | 0.00 | 0.00 | 57 | 1004.8 |
| 20260902223603 | 95 | 140 | 5.0 | 9.0 | 0.00 | 0.00 | 0.00 | 57 | 1004.8 |
| 20260902223503 | 95 | 168 | 4.0 | 9.0 | 0.00 | 0.00 | 0.00 | 57 | 1004.8 |
| 20260902223404 | 95 | 144 | 4.0 | 9.0 | 0.00 | 0.00 | 0.00 | 57 | 1004.8 |
| 20260902223303 | 96 | 172 | 5.0 | 9.0 | 0.00 | 0.00 | 0.00 | 57 | 1004.7 |
| 20260902223204 | 96 | 165 | 4.0 | 7.0 | 0.00 | 0.00 | 0.00 | 56 | 1004.8 |
| 20260902223103 | 96 | 131 | 4.0 | 7.0 | 0.00 | 0.00 | 0.00 | 56 | 1004.9 |
| 20260902223004 | 96 | 158 | 5.0 | 7.0 | 0.00 | 0.00 | 0.00 | 56 | 1004.8 |
| 20260902222902 | 96 | 162 | 6.0 | 7.0 | 0.00 | 0.00 | 0.00 | 56 | 1004.8 |
| 20260902222804 | 96 | 173 | 4.0 | 7.0 | 0.00 | 0.00 | 0.00 | 56 | 1004.8 |
| 20260902222703 | 96 | 145 | 4.0 | 7.0 | 0.00 | 0.00 | 0.00 | 56 | 1004.8 |
| 20260902222604 | 96 | 134 | 5.0 | 7.0 | 0.00 | 0.00 | 0.00 | 56 | 1004.8 |
| 20260902222502 | 96 | 159 | 4.0 | 7.0 | 0.00 | 0.00 | 0.00 | 55 | 1004.8 |
| 20260902222403 | 96 | 109 | 3.0 | 7.0 | 0.00 | 0.00 | 0.00 | 55 | 1004.8 |
| 20260902222305 | 96 | 157 | 2.0 | 7.0 | 0.00 | 0.00 | 0.00 | 55 | 1004.8 |
| 20260902222204 | 96 | 164 | 2.0 | 7.0 | 0.00 | 0.00 | 0.00 | 55 | 1004.9 |
| 20260902222103 | 96 | 165 | 4.0 | 7.0 | 0.00 | 0.00 | 0.00 | 55 | 1004.9 |
| 20260902222006 | 96 | 133 | 5.0 | 7.0 | 0.00 | 0.00 | 0.00 | 55 | 1004.9 |
| 20260902221904 | 96 | 155 | 5.0 | 11.0 | 0.00 | 0.00 | 0.00 | 55 | 1004.9 |
| 20260902221802 | 96 | 155 | 4.0 | 12.0 | 0.00 | 0.00 | 0.00 | 55 | 1005.0 |
| 20260902221704 | 96 | 171 | 4.0 | 12.0 | 0.00 | 0.00 | 0.00 | 55 | 1004.9 |
| 20260902221602 | 96 | 171 | 4.0 | 12.0 | 0.00 | 0.00 | 0.00 | 55 | 1005.0 |
| 20260902221505 | 96 | 188 | 4.0 | 12.0 | 0.00 | 0.00 | 0.00 | 55 | 1005.0 |
| 20260902221402 | 96 | 166 | 4.0 | 12.0 | 0.00 | 0.00 | 0.00 | 55 | 1005.1 |
| 20260902221304 | 96 | 166 | 4.0 | 12.0 | 0.00 | 0.00 | 0.00 | 55 | 1005.0 |
| 20260902221205 | 96 | 171 | 4.0 | 12.0 | 0.00 | 0.00 | 0.00 | 55 | 1005.1 |
| 20260902221102 | 96 | 169 | 5.0 | 12.0 | 0.00 | 0.00 | 0.00 | 55 | 1005.1 |
| 20260902221003 | 96 | 164 | 5.0 | 12.0 | 0.00 | 0.00 | 0.00 | 55 | 1005.0 |
| 20260902220902 | 96 | 188 | 5.0 | 12.0 | 0.00 | 0.00 | 0.00 | 55 | 1005.1 |
| 20260902220802 | 96 | 178 | 5.0 | 10.0 | 0.00 | 0.00 | 0.00 | 55 | 1004.9 |
| 20260902220703 | 96 | 155 | 4.0 | 10.0 | 0.00 | 0.00 | 0.00 | 55 | 1004.9 |
| 20260902220602 | 96 | 104 | 4.0 | 7.0 | 0.00 | 0.00 | 0.00 | 55 | 1005.0 |
| 20260902220502 | 96 | 159 | 4.0 | 7.0 | 0.00 | 0.00 | 0.00 | 55 | 1004.8 |
| 20260902220404 | 96 | 133 | 4.0 | 7.0 | 0.00 | 0.00 | 0.00 | 55 | 1004.8 |
| 20260902220304 | 96 | 104 | 5.0 | 7.0 | 0.00 | 0.00 | 0.00 | 55 | 1004.9 |
| 20260902220203 | 96 | 185 | 4.0 | 7.0 | 0.00 | 0.00 | 0.00 | 55 | 1004.9 |
| 20260902220003 | 96 | 128 | 3.0 | 9.0 | 0.00 | 0.00 | 0.00 | 55 | 1004.8 |
| 20260902215903 | 96 | 103 | 3.0 | 9.0 | 0.00 | 0.00 | 0.00 | 55 | 1004.8 |
| 20260902215803 | 96 | 134 | 4.0 | 9.0 | 0.00 | 0.00 | 0.00 | 55 | 1004.9 |
| 20260902215703 | 96 | 130 | 5.0 | 9.0 | 0.00 | 0.00 | 0.00 | 55 | 1004.8 |
| 20260902215602 | 96 | 168 | 3.0 | 9.0 | 0.00 | 0.00 | 0.00 | 55 | 1004.9 |
| 20260902215503 | 96 | 114 | 2.0 | 9.0 | 0.00 | 0.00 | 0.00 | 55 | 1004.8 |
| 20260902215402 | 96 | 149 | 2.0 | 9.0 | 0.00 | 0.00 | 0.00 | 55 | 1004.9 |
| 20260902215306 | 96 | 131 | 4.0 | 9.0 | 0.00 | 0.00 | 0.00 | 55 | 1004.9 |
| 20260902215202 | 96 | 130 | 6.0 | 9.0 | 0.00 | 0.00 | 0.00 | 55 | 1005.0 |
| 20260902215102 | 96 | 110 | 4.0 | 9.0 | 0.00 | 0.00 | 0.00 | 55 | 1005.0 |
| 20260902215003 | 97 | 148 | 5.0 | 9.0 | 0.00 | 0.00 | 0.00 | 54 | 1005.0 |
| 20260902214903 | 97 | 147 | 6.0 | 9.0 | 0.00 | 0.00 | 0.00 | 54 | 1005.0 |
| 20260902214803 | 97 | 140 | 5.0 | 9.0 | 0.00 | 0.00 | 0.00 | 53 | 1004.9 |
| 20260902214703 | 97 | 127 | 5.0 | 9.0 | 0.00 | 0.00 | 0.00 | 53 | 1004.9 |
| 20260902214603 | 97 | 164 | 5.0 | 11.0 | 0.00 | 0.00 | 0.00 | 53 | 1005.0 |
| 20260902214502 | 97 | 140 | 5.0 | 11.0 | 0.00 | 0.00 | 0.00 | 53 | 1005.0 |
| 20260902214403 | 97 | 145 | 5.0 | 11.0 | 0.00 | 0.00 | 0.00 | 53 | 1005.0 |
| 20260902214304 | 97 | 130 | 4.0 | 11.0 | 0.00 | 0.00 | 0.00 | 53 | 1005.0 |
| 20260902214202 | 97 | 120 | 4.0 | 11.0 | 0.00 | 0.00 | 0.00 | 53 | 1005.0 |
| 20260902214104 | 97 | 151 | 4.0 | 11.0 | 0.00 | 0.00 | 0.00 | 52 | 1005.0 |
| 20260902214002 | 97 | 131 | 5.0 | 11.0 | 0.00 | 0.00 | 0.00 | 52 | 1005.0 |
| 20260902213903 | 97 | 161 | 4.0 | 11.0 | 0.00 | 0.00 | 0.00 | 52 | 1004.9 |
| 20260902213802 | 98 | 173 | 5.0 | 11.0 | 0.00 | 0.00 | 0.00 | 52 | 1004.9 |
| 20260902213702 | 98 | 142 | 5.0 | 11.0 | 0.00 | 0.00 | 0.00 | 52 | 1005.0 |
| 20260902213603 | 98 | 131 | 4.0 | 9.0 | 0.00 | 0.00 | 0.00 | 52 | 1005.0 |
| 20260902213503 | 98 | 123 | 4.0 | 9.0 | 0.00 | 0.00 | 0.00 | 51 | 1005.0 |
| 20260902213403 | 98 | 176 | 4.0 | 6.0 | 0.00 | 0.00 | 0.00 | 51 | 1005.1 |
| 20260902213303 | 98 | 199 | 4.0 | 6.0 | 0.00 | 0.00 | 0.00 | 51 | 1005.2 |
| 20260902213202 | 98 | 200 | 3.0 | 6.0 | 0.00 | 0.00 | 0.00 | 51 | 1005.2 |
| 20260902213103 | 98 | 234 | 3.0 | 6.0 | 0.00 | 0.00 | 0.00 | 51 | 1005.2 |
| 20260902213004 | 98 | 185 | 2.0 | 6.0 | 0.00 | 0.00 | 0.00 | 51 | 1005.2 |
| 20260902212903 | 99 | 149 | 2.0 | 7.0 | 0.00 | 0.00 | 0.00 | 51 | 1005.2 |
| 20260902212803 | 99 | 157 | 3.0 | 7.0 | 0.00 | 0.00 | 0.00 | 52 | 1005.1 |
| 20260902212703 | 98 | 142 | 4.0 | 7.0 | 0.00 | 0.00 | 0.00 | 51 | 1005.2 |
| 20260902212603 | 98 | 128 | 3.0 | 7.0 | 0.00 | 0.00 | 0.00 | 52 | 1005.1 |
| 20260902212504 | 98 | 123 | 3.0 | 7.0 | 0.00 | 0.00 | 0.00 | 52 | 1005.1 |
| 20260902212403 | 98 | 186 | 3.0 | 7.0 | 0.00 | 0.00 | 0.00 | 52 | 1005.2 |
| 20260902212305 | 98 | 165 | 2.0 | 7.0 | 0.00 | 0.00 | 0.00 | 52 | 1005.2 |
| 20260902212204 | 98 | 111 | 3.0 | 7.0 | 0.00 | 0.00 | 0.00 | 52 | 1005.2 |
| 20260902212103 | 98 | 179 | 3.0 | 7.0 | 0.00 | 0.00 | 0.00 | 52 | 1005.2 |
| 20260902212004 | 98 | 149 | 4.0 | 7.0 | 0.00 | 0.00 | 0.00 | 51 | 1005.2 |
| 20260902211903 | 98 | 142 | 4.0 | 6.0 | 0.00 | 0.00 | 0.00 | 52 | 1005.2 |
| 20260902211803 | 98 | 179 | 4.0 | 6.0 | 0.00 | 0.00 | 0.00 | 53 | 1005.2 |
| 20260902211703 | 98 | 135 | 3.0 | 6.0 | 0.00 | 0.00 | 0.00 | 53 | 1005.2 |
| 20260902211603 | 97 | 148 | 3.0 | 6.0 | 0.00 | 0.00 | 0.00 | 53 | 1005.2 |
| 20260902211504 | 97 | 164 | 4.0 | 9.0 | 0.00 | 0.00 | 0.00 | 52 | 1005.2 |
| 20260902211404 | 97 | 186 | 3.0 | 9.0 | 0.00 | 0.00 | 0.00 | 52 | 1005.2 |
| 20260902211303 | 97 | 202 | 2.0 | 9.0 | 0.00 | 0.00 | 0.00 | 52 | 1005.3 |
| 20260902211203 | 97 | 155 | 2.0 | 9.0 | 0.00 | 0.00 | 0.00 | 52 | 1005.3 |
| 20260902211104 | 97 | 176 | 3.0 | 9.0 | 0.00 | 0.00 | 0.00 | 52 | 1005.3 |
| 20260902211006 | 97 | 162 | 3.0 | 9.0 | 0.00 | 0.00 | 0.00 | 53 | 1005.3 |
| 20260902210903 | 97 | 169 | 2.0 | 9.0 | 0.00 | 0.00 | 0.00 | 53 | 1005.2 |
| 20260902210802 | 97 | 164 | 2.0 | 9.0 | 0.00 | 0.00 | 0.00 | 53 | 1005.3 |
| 20260902210703 | 97 | 162 | 4.0 | 9.0 | 0.00 | 0.00 | 0.00 | 53 | 1005.3 |
| 20260902210603 | 97 | 124 | 5.0 | 9.0 | 0.00 | 0.00 | 0.00 | 52 | 1005.3 |
| 20260902210504 | 97 | 118 | 6.0 | 9.0 | 0.00 | 0.00 | 0.00 | 52 | 1005.4 |
| 20260902210403 | 97 | 89 | 6.0 | 9.0 | 0.00 | 0.00 | 0.00 | 53 | 1005.4 |
| 20260902210303 | 97 | 114 | 4.0 | 9.0 | 0.00 | 0.00 | 0.00 | 53 | 1005.4 |
| 20260902210203 | 97 | 182 | 4.0 | 9.0 | 0.00 | 0.00 | 0.00 | 52 | 1005.4 |
| 20260902210103 | 97 | 173 | 5.0 | 9.0 | 0.00 | 0.00 | 0.00 | 52 | 1005.5 |
| 20260902210001 | 97 | 176 | 4.0 | 9.0 | 0.00 | 0.00 | 0.00 | 53 | 1005.4 |
| 20260902205903 | 97 | 175 | 3.0 | 6.0 | 0.00 | 0.00 | 0.00 | 53 | 1005.4 |
| 20260902205803 | 97 | 159 | 3.0 | 6.0 | 0.00 | 0.00 | 0.00 | 53 | 1005.4 |
| 20260902205703 | 97 | 149 | 3.0 | 6.0 | 0.00 | 0.00 | 0.00 | 52 | 1005.4 |
| 20260902205604 | 97 | 197 | 3.0 | 6.0 | 0.00 | 0.00 | 0.00 | 52 | 1005.4 |
| 20260902205505 | 97 | 216 | 4.0 | 6.0 | 0.00 | 0.00 | 0.00 | 52 | 1005.4 |
| 20260902205402 | 97 | 210 | 3.0 | 6.0 | 0.00 | 0.00 | 0.00 | 52 | 1005.4 |
| 20260902205306 | 97 | 130 | 2.0 | 5.0 | 0.00 | 0.00 | 0.00 | 53 | 1005.3 |
| 20260902205203 | 97 | 189 | 2.0 | 5.0 | 0.00 | 0.00 | 0.00 | 53 | 1005.3 |
| 20260902205104 | 97 | 203 | 2.0 | 5.0 | 0.00 | 0.00 | 0.00 | 53 | 1005.4 |
| 20260902205001 | 97 | 189 | 2.0 | 5.0 | 0.00 | 0.00 | 0.00 | 54 | 1005.4 |
| 20260902204903 | 97 | 193 | 3.0 | 7.0 | 0.00 | 0.00 | 0.00 | 53 | 1005.4 |
| 20260902204803 | 97 | 221 | 4.0 | 7.0 | 0.00 | 0.00 | 0.00 | 53 | 1005.4 |
| 20260902204705 | 97 | 223 | 3.0 | 7.0 | 0.00 | 0.00 | 0.00 | 54 | 1005.5 |
| 20260902204603 | 97 | 241 | 3.0 | 7.0 | 0.00 | 0.00 | 0.00 | 54 | 1005.4 |
| 20260902204502 | 97 | 255 | 2.0 | 7.0 | 0.00 | 0.00 | 0.00 | 53 | 1005.5 |
| 20260902204402 | 97 | 235 | 3.0 | 7.0 | 0.00 | 0.00 | 0.00 | 53 | 1005.6 |
| 20260902204303 | 97 | 207 | 3.0 | 7.0 | 0.00 | 0.00 | 0.00 | 53 | 1005.5 |
| 20260902204203 | 97 | 224 | 3.0 | 7.0 | 0.00 | 0.00 | 0.00 | 53 | 1005.5 |
| 20260902204104 | 97 | 148 | 4.0 | 7.0 | 0.00 | 0.00 | 0.00 | 53 | 1005.4 |
| 20260902204004 | 97 | 141 | 4.0 | 7.0 | 0.00 | 0.00 | 0.00 | 53 | 1005.5 |
| 20260902203903 | 97 | 145 | 3.0 | 7.0 | 0.00 | 0.00 | 0.00 | 53 | 1005.5 |
| 20260902203804 | 97 | 189 | 3.0 | 7.0 | 0.00 | 0.00 | 0.00 | 53 | 1005.6 |
| 20260902203704 | 97 | 151 | 2.0 | 7.0 | 0.00 | 0.00 | 0.00 | 53 | 1005.7 |
| 20260902203602 | 97 | 145 | 4.0 | 7.0 | 0.00 | 0.00 | 0.00 | 53 | 1005.7 |
| 20260902203505 | 97 | 137 | 4.0 | 7.0 | 0.00 | 0.00 | 0.00 | 53 | 1005.7 |
| 20260902203403 | 97 | 162 | 3.0 | 7.0 | 0.00 | 0.00 | 0.00 | 53 | 1005.8 |
| 20260902203302 | 97 | 185 | 3.0 | 5.0 | 0.00 | 0.00 | 0.00 | 54 | 1005.7 |
| 20260902203203 | 97 | 188 | 4.0 | 5.0 | 0.00 | 0.00 | 0.00 | 54 | 1005.7 |
| 20260902203102 | 97 | 220 | 3.0 | 5.0 | 0.00 | 0.00 | 0.00 | 54 | 1005.9 |
| 20260902203005 | 97 | 173 | 2.0 | 7.0 | 0.00 | 0.00 | 0.00 | 53 | 1006.0 |
| 20260902202902 | 97 | 200 | 2.0 | 7.0 | 0.00 | 0.00 | 0.00 | 54 | 1005.9 |
| 20260902202803 | 97 | 190 | 2.0 | 7.0 | 0.00 | 0.00 | 0.00 | 54 | 1005.9 |
| 20260902202703 | 97 | 179 | 3.0 | 7.0 | 0.00 | 0.00 | 0.00 | 53 | 1006.0 |
| 20260902202603 | 97 | 214 | 3.0 | 7.0 | 0.00 | 0.00 | 0.00 | 53 | 1005.9 |
| 20260902202503 | 97 | 185 | 4.0 | 7.0 | 0.00 | 0.00 | 0.00 | 53 | 1006.0 |
| 20260902202403 | 98 | 175 | 4.0 | 10.0 | 0.00 | 0.00 | 0.00 | 53 | 1005.8 |
| 20260902202306 | 98 | 202 | 2.0 | 10.0 | 0.00 | 0.00 | 0.00 | 54 | 1005.8 |
| 20260902202202 | 98 | 240 | 3.0 | 10.0 | 0.00 | 0.00 | 0.00 | 54 | 1005.8 |
| 20260902202104 | 98 | 219 | 3.0 | 10.0 | 0.00 | 0.00 | 0.00 | 54 | 1005.7 |
| 20260902202003 | 98 | 235 | 3.0 | 10.0 | 0.00 | 0.00 | 0.00 | 53 | 1005.7 |
| 20260902201903 | 98 | 230 | 4.0 | 10.0 | 0.00 | 0.00 | 0.00 | 52 | 1005.7 |
| 20260902201805 | 98 | 258 | 4.0 | 10.0 | 0.00 | 0.00 | 0.00 | 52 | 1005.7 |
| 20260902201702 | 98 | 266 | 4.0 | 10.0 | 0.00 | 0.00 | 0.00 | 52 | 1005.8 |
| 20260902201602 | 98 | 255 | 5.0 | 10.0 | 0.00 | 0.00 | 0.00 | 52 | 1005.8 |
| 20260902201503 | 98 | 224 | 4.0 | 10.0 | 0.00 | 0.00 | 0.00 | 54 | 1005.7 |
| 20260902201403 | 98 | 244 | 2.0 | 7.0 | 0.00 | 0.00 | 0.00 | 54 | 1005.7 |
| 20260902201303 | 98 | 178 | 2.0 | 7.0 | 0.00 | 0.00 | 0.00 | 54 | 1005.7 |
| 20260902201145 | 98 | 176 | 3.0 | 7.0 | 0.00 | 0.00 | 0.00 | 53 | 1005.7 |
| 20260902201040 | 98 | 161 | 4.0 | 7.0 | 0.00 | 0.00 | 0.00 | 53 | 1005.8 |
| 20260902200935 | 97 | 192 | 3.0 | 6.0 | 0.00 | 0.00 | 0.00 | 54 | 1005.8 |
| 20260902200834 | 97 | 189 | 3.0 | 6.0 | 0.00 | 0.00 | 0.00 | 53 | 1005.8 |
| 20260902200731 | 97 | 226 | 4.0 | 6.0 | 0.00 | 0.00 | 0.00 | 53 | 1005.8 |
| 20260902200632 | 97 | 210 | 4.0 | 6.0 | 0.00 | 0.00 | 0.00 | 53 | 1005.9 |
| 20260902200530 | 97 | 237 | 4.0 | 6.0 | 0.00 | 0.00 | 0.00 | 53 | 1005.8 |
| 20260902200429 | 98 | 219 | 3.0 | 10.0 | 0.00 | 0.00 | 0.00 | 53 | 1005.8 |
| 20260902200327 | 98 | 189 | 4.0 | 10.0 | 0.00 | 0.00 | 0.00 | 53 | 1006.0 |
| 20260902200224 | 98 | 180 | 3.0 | 10.0 | 0.00 | 0.00 | 0.00 | 54 | 1006.0 |
| 20260902200122 | 98 | 221 | 2.0 | 10.0 | 0.00 | 0.00 | 0.00 | 55 | 1006.0 |
| 20260902200013 | 98 | 182 | 2.0 | 10.0 | 0.00 | 0.00 | 0.00 | 55 | 1006.0 |
| 20260902195912 | 97 | 188 | 2.0 | 10.0 | 0.00 | 0.00 | 0.00 | 55 | 1006.0 |
| 20260902195813 | 97 | 209 | 2.0 | 10.0 | 0.00 | 0.00 | 0.00 | 55 | 1006.0 |
| 20260902195713 | 97 | 180 | 3.0 | 10.0 | 0.00 | 0.00 | 0.00 | 55 | 1006.0 |
| 20260902195613 | 97 | 209 | 3.0 | 10.0 | 0.00 | 0.00 | 0.00 | 55 | 1006.1 |
| 20260902195512 | 97 | 233 | 4.0 | 10.0 | 0.00 | 0.00 | 0.00 | 55 | 1006.2 |
| 20260902195412 | 97 | 203 | 3.0 | 5.0 | 0.00 | 0.00 | 0.00 | 55 | 1006.2 |
| 20260902195311 | 97 | 204 | 2.0 | 5.0 | 0.00 | 0.00 | 0.00 | 54 | 1006.2 |
| 20260902195211 | 97 | 179 | 2.0 | 5.0 | 0.00 | 0.00 | 0.00 | 54 | 1006.2 |
| 20260902195111 | 97 | 175 | 3.0 | 7.0 | 0.00 | 0.00 | 0.00 | 54 | 1006.2 |
| 20260902195011 | 97 | 182 | 4.0 | 10.0 | 0.00 | 0.00 | 0.00 | 54 | 1006.2 |
| 20260902194913 | 97 | 197 | 4.0 | 12.0 | 0.00 | 0.00 | 0.00 | 55 | 1006.3 |
| 20260902194813 | 97 | 175 | 3.0 | 12.0 | 0.00 | 0.00 | 0.00 | 55 | 1006.4 |
| 20260902194713 | 97 | 182 | 3.0 | 12.0 | 0.00 | 0.00 | 0.00 | 54 | 1006.3 |
| 20260902194611 | 97 | 190 | 3.0 | 12.0 | 0.00 | 0.00 | 0.00 | 54 | 1006.3 |
| 20260902194513 | 97 | 171 | 3.0 | 12.0 | 0.00 | 0.00 | 0.00 | 54 | 1006.4 |
| 20260902194414 | 97 | 233 | 3.0 | 12.0 | 0.00 | 0.00 | 0.00 | 54 | 1006.4 |
| 20260902194313 | 97 | 216 | 5.0 | 12.0 | 0.00 | 0.00 | 0.00 | 54 | 1006.4 |
| 20260902194213 | 97 | 224 | 6.0 | 12.0 | 0.00 | 0.00 | 0.00 | 54 | 1006.5 |
| 20260902194113 | 97 | 227 | 6.0 | 12.0 | 0.00 | 0.00 | 0.00 | 54 | 1006.5 |
| 20260902194010 | 97 | 264 | 6.0 | 12.0 | 0.00 | 0.00 | 0.00 | 55 | 1006.5 |
| 20260902193911 | 97 | 265 | 7.0 | 12.0 | 0.00 | 0.00 | 0.00 | 54 | 1006.4 |
| 20260902193811 | 97 | 250 | 5.0 | 9.0 | 0.00 | 0.00 | 0.00 | 54 | 1006.5 |
| 20260902193711 | 97 | 230 | 4.0 | 9.0 | 0.00 | 0.00 | 0.00 | 54 | 1006.5 |
| 20260902193612 | 97 | 228 | 4.0 | 9.0 | 0.00 | 0.00 | 0.00 | 55 | 1006.5 |
| 20260902193511 | 97 | 231 | 5.0 | 9.0 | 0.00 | 0.00 | 0.00 | 55 | 1006.5 |
| 20260902193412 | 97 | 180 | 5.0 | 9.0 | 0.00 | 0.00 | 0.00 | 55 | 1006.5 |
| 20260902193310 | 97 | 196 | 4.0 | 9.0 | 0.00 | 0.00 | 0.00 | 55 | 1006.6 |
| 20260902193212 | 97 | 114 | 3.0 | 9.0 | 0.00 | 0.00 | 0.00 | 55 | 1006.6 |
| 20260902193110 | 97 | 165 | 2.0 | 7.0 | 0.00 | 0.00 | 0.00 | 56 | 1006.6 |
| 20260902193011 | 97 | 149 | 3.0 | 9.0 | 0.00 | 0.00 | 0.00 | 57 | 1006.6 |
| 20260902192910 | 96 | 219 | 3.0 | 9.0 | 0.00 | 0.00 | 0.00 | 57 | 1006.6 |
| 20260902192809 | 96 | 213 | 4.0 | 9.0 | 0.00 | 0.00 | 0.00 | 57 | 1006.7 |
| 20260902192711 | 96 | 200 | 4.0 | 9.0 | 0.00 | 0.00 | 0.00 | 57 | 1006.7 |
| 20260902192611 | 96 | 197 | 4.0 | 10.0 | 0.00 | 0.00 | 0.00 | 56 | 1006.7 |
| 20260902192512 | 96 | 185 | 3.0 | 10.0 | 0.00 | 0.00 | 0.00 | 57 | 1006.6 |
| 20260902192410 | 96 | 210 | 3.0 | 10.0 | 0.00 | 0.00 | 0.00 | 57 | 1006.7 |
| 20260902192312 | 96 | 199 | 4.0 | 10.0 | 0.00 | 0.00 | 0.00 | 57 | 1006.7 |
| 20260902192210 | 96 | 202 | 5.0 | 10.0 | 0.00 | 0.00 | 0.00 | 58 | 1006.7 |
| 20260902192110 | 96 | 186 | 4.0 | 10.0 | 0.00 | 0.00 | 0.00 | 58 | 1006.7 |
| 20260902192011 | 96 | 214 | 3.0 | 10.0 | 0.00 | 0.00 | 0.00 | 58 | 1006.7 |
| 20260902191910 | 96 | 185 | 2.0 | 10.0 | 0.00 | 0.00 | 0.00 | 57 | 1006.7 |
| 20260902191812 | 96 | 250 | 4.0 | 10.0 | 0.00 | 0.00 | 0.00 | 57 | 1006.8 |
| 20260902191711 | 96 | 233 | 5.0 | 11.0 | 0.00 | 0.00 | 0.00 | 57 | 1006.7 |
| 20260902191612 | 96 | 262 | 4.0 | 11.0 | 0.00 | 0.00 | 0.00 | 57 | 1006.8 |
| 20260902191510 | 96 | 261 | 4.0 | 12.0 | 0.00 | 0.00 | 0.00 | 57 | 1006.7 |
| 20260902191410 | 96 | 264 | 4.0 | 12.0 | 0.00 | 0.00 | 0.00 | 57 | 1006.8 |
| 20260902191311 | 96 | 238 | 5.0 | 14.0 | 0.00 | 0.00 | 0.00 | 57 | 1006.9 |
| 20260902191210 | 96 | 217 | 5.0 | 14.0 | 0.00 | 0.00 | 0.00 | 57 | 1006.8 |
| 20260902191111 | 96 | 245 | 6.0 | 14.0 | 0.00 | 0.00 | 0.00 | 57 | 1006.8 |
| 20260902191010 | 96 | 241 | 6.0 | 14.0 | 0.00 | 0.00 | 0.00 | 57 | 1006.8 |
| 20260902190911 | 95 | 244 | 8.0 | 14.0 | 0.00 | 0.00 | 0.00 | 57 | 1006.8 |
| 20260902190811 | 95 | 283 | 9.0 | 14.0 | 0.00 | 0.00 | 0.00 | 56 | 1006.8 |
| 20260902190711 | 96 | 265 | 8.0 | 14.0 | 0.00 | 0.00 | 0.00 | 57 | 1006.8 |
| 20260902190610 | 96 | 264 | 7.0 | 14.0 | 0.00 | 0.00 | 0.00 | 57 | 1006.9 |
| 20260902190510 | 96 | 227 | 7.0 | 14.0 | 0.00 | 0.00 | 0.00 | 58 | 1006.9 |
| 20260902190412 | 96 | 247 | 5.0 | 14.0 | 0.00 | 0.00 | 0.00 | 58 | 1006.9 |
| 20260902190307 | 96 | 212 | 4.0 | 7.0 | 0.00 | 0.00 | 0.00 | 59 | 1006.9 |
| 20260902190203 | 95 | 220 | 6.0 | 7.0 | 0.00 | 0.00 | 0.00 | 59 | 1006.8 |
| 20260902190004 | 96 | 197 | 3.0 | 7.0 | 0.00 | 0.00 | 0.00 | 58 | 1006.9 |
| 20260902185903 | 96 | 176 | 3.0 | 7.0 | 0.00 | 0.00 | 0.00 | 58 | 1006.9 |
| 20260902185803 | 96 | 180 | 3.0 | 7.0 | 0.00 | 0.00 | 0.00 | 58 | 1007.0 |
| 20260902185702 | 96 | 175 | 3.0 | 13.0 | 0.00 | 0.00 | 0.00 | 58 | 1007.0 |
| 20260902185604 | 96 | 202 | 4.0 | 13.0 | 0.00 | 0.00 | 0.00 | 58 | 1007.0 |
| 20260902185503 | 96 | 196 | 5.0 | 13.0 | 0.00 | 0.00 | 0.00 | 57 | 1007.1 |
| 20260902185403 | 95 | 213 | 3.0 | 13.0 | 0.00 | 0.00 | 0.00 | 57 | 1007.1 |
| 20260902185306 | 95 | 189 | 2.0 | 13.0 | 0.00 | 0.00 | 0.00 | 57 | 1007.1 |
| 20260902185203 | 95 | 261 | 2.0 | 13.0 | 0.00 | 0.00 | 0.00 | 57 | 1007.1 |
| 20260902185103 | 95 | 262 | 2.0 | 13.0 | 0.00 | 0.00 | 0.00 | 57 | 1007.2 |
| 20260902185004 | 95 | 266 | 4.0 | 13.0 | 0.00 | 0.00 | 0.00 | 57 | 1007.2 |
| 20260902184903 | 95 | 254 | 6.0 | 13.0 | 0.00 | 0.00 | 0.00 | 57 | 1007.3 |
| 20260902184803 | 95 | 228 | 6.0 | 13.0 | 0.00 | 0.00 | 0.00 | 58 | 1007.2 |
| 20260902184702 | 95 | 255 | 4.0 | 10.0 | 0.00 | 0.00 | 0.00 | 58 | 1007.3 |
| 20260902184604 | 95 | 202 | 3.0 | 10.0 | 0.00 | 0.00 | 0.00 | 59 | 1007.3 |
| 20260902184504 | 95 | 157 | 3.0 | 10.0 | 0.00 | 0.00 | 0.00 | 59 | 1007.4 |
| 20260902184402 | 95 | 245 | 4.0 | 10.0 | 0.00 | 0.00 | 0.00 | 58 | 1007.4 |
| 20260902184302 | 95 | 259 | 3.0 | 10.0 | 0.00 | 0.00 | 0.00 | 59 | 1007.5 |
| 20260902184203 | 95 | 206 | 3.0 | 10.0 | 0.00 | 0.00 | 0.00 | 58 | 1007.5 |
| 20260902184102 | 95 | 216 | 4.0 | 10.0 | 0.00 | 0.00 | 0.00 | 58 | 1007.5 |
| 20260902184004 | 95 | 234 | 5.0 | 10.0 | 0.00 | 0.00 | 0.00 | 58 | 1007.5 |
| 20260902183903 | 96 | 142 | 4.0 | 10.0 | 0.00 | 0.00 | 0.00 | 59 | 1007.5 |
| 20260902183804 | 96 | 185 | 4.0 | 10.0 | 0.00 | 0.00 | 0.00 | 59 | 1007.5 |
| 20260902183703 | 95 | 164 | 5.0 | 10.0 | 0.00 | 0.00 | 0.00 | 60 | 1007.4 |
| 20260902183604 | 95 | 266 | 7.0 | 11.0 | 0.00 | 0.00 | 0.00 | 58 | 1007.5 |
| 20260902183504 | 95 | 268 | 6.0 | 11.0 | 0.00 | 0.00 | 0.00 | 58 | 1007.5 |
| 20260902183402 | 95 | 244 | 6.0 | 11.0 | 0.00 | 0.00 | 0.00 | 58 | 1007.5 |
| 20260902183303 | 95 | 251 | 5.0 | 11.0 | 0.00 | 0.00 | 0.00 | 58 | 1007.5 |
| 20260902183203 | 96 | 237 | 6.0 | 11.0 | 0.00 | 0.00 | 0.00 | 58 | 1007.5 |
| 20260902183102 | 96 | 223 | 6.0 | 11.0 | 0.00 | 0.00 | 0.00 | 58 | 1007.6 |
| 20260902183003 | 96 | 230 | 6.0 | 11.0 | 0.00 | 0.00 | 0.00 | 58 | 1007.5 |
| 20260902182904 | 96 | 226 | 6.0 | 11.0 | 0.00 | 0.00 | 0.00 | 58 | 1007.6 |
| 20260902182803 | 96 | 244 | 6.0 | 11.0 | 0.00 | 0.00 | 0.00 | 58 | 1007.5 |
| 20260902182703 | 96 | 217 | 4.0 | 13.0 | 0.00 | 0.00 | 0.00 | 59 | 1007.6 |
| 20260902182602 | 95 | 268 | 4.0 | 13.0 | 0.00 | 0.00 | 0.00 | 59 | 1007.6 |
| 20260902182504 | 94 | 217 | 6.0 | 13.0 | 0.00 | 0.00 | 0.00 | 59 | 1007.6 |
| 20260902182404 | 94 | 262 | 6.0 | 13.0 | 0.00 | 0.00 | 0.00 | 58 | 1007.7 |
| 20260902182306 | 94 | 258 | 4.0 | 13.0 | 0.00 | 0.00 | 0.00 | 59 | 1007.6 |
| 20260902182202 | 94 | 133 | 4.0 | 13.0 | 0.00 | 0.00 | 0.00 | 59 | 1007.6 |
| 20260902182102 | 94 | 264 | 6.0 | 13.0 | 0.00 | 0.00 | 0.00 | 59 | 1007.7 |
| 20260902182003 | 94 | 259 | 6.0 | 13.0 | 0.00 | 0.00 | 0.00 | 58 | 1007.7 |
| 20260902181902 | 94 | 265 | 6.0 | 13.0 | 0.00 | 0.00 | 0.00 | 59 | 1007.7 |
| 20260902181805 | 94 | 259 | 6.0 | 13.0 | 0.00 | 0.00 | 0.00 | 60 | 1007.7 |
| 20260902181703 | 94 | 243 | 5.0 | 10.0 | 0.00 | 0.00 | 0.00 | 60 | 1007.8 |
| 20260902181604 | 94 | 237 | 5.0 | 10.0 | 0.00 | 0.00 | 0.00 | 60 | 1007.8 |
| 20260902181504 | 94 | 224 | 5.0 | 10.0 | 0.00 | 0.00 | 0.00 | 60 | 1007.8 |
| 20260902181403 | 94 | 234 | 5.0 | 10.0 | 0.00 | 0.00 | 0.00 | 60 | 1007.8 |
| 20260902181303 | 94 | 213 | 4.0 | 10.0 | 0.00 | 0.00 | 0.00 | 61 | 1007.8 |
| 20260902181204 | 94 | 220 | 5.0 | 11.0 | 0.00 | 0.00 | 0.00 | 61 | 1007.8 |
| 20260902181104 | 93 | 220 | 5.0 | 11.0 | 0.00 | 0.00 | 0.00 | 61 | 1007.8 |
| 20260902181005 | 93 | 210 | 4.0 | 11.0 | 0.00 | 0.00 | 0.00 | 62 | 1007.8 |
| 20260902180904 | 94 | 168 | 4.0 | 11.0 | 0.00 | 0.00 | 0.00 | 62 | 1007.9 |
| 20260902180802 | 94 | 166 | 4.0 | 11.0 | 0.00 | 0.00 | 0.00 | 62 | 1007.9 |
| 20260902180702 | 94 | 175 | 3.0 | 11.0 | 0.00 | 0.00 | 0.00 | 62 | 1007.9 |
| 20260902180603 | 94 | 237 | 4.0 | 11.0 | 0.00 | 0.00 | 0.00 | 61 | 1007.9 |
| 20260902180502 | 94 | 243 | 5.0 | 11.0 | 0.00 | 0.00 | 0.00 | 61 | 1008.0 |
| 20260902180404 | 94 | 235 | 3.0 | 11.0 | 0.00 | 0.00 | 0.00 | 61 | 1008.0 |
| 20260902180302 | 94 | 261 | 3.0 | 11.0 | 0.00 | 0.00 | 0.00 | 61 | 1008.0 |
| 20260902180202 | 94 | 203 | 2.0 | 9.0 | 0.00 | 0.00 | 0.00 | 62 | 1008.0 |
| 20260902180005 | 93 | 257 | 3.0 | 12.0 | 0.00 | 0.00 | 0.00 | 62 | 1008.2 |
| 20260902175903 | 93 | 193 | 5.0 | 12.0 | 0.00 | 0.00 | 0.00 | 62 | 1008.2 |
| 20260902175805 | 93 | 241 | 5.0 | 12.0 | 0.00 | 0.00 | 0.00 | 63 | 1008.2 |
| 20260902175701 | 93 | 188 | 4.0 | 12.0 | 0.00 | 0.00 | 0.00 | 63 | 1008.2 |
| 20260902175603 | 93 | 255 | 4.0 | 12.0 | 0.00 | 0.00 | 0.00 | 63 | 1008.2 |
| 20260902175502 | 93 | 240 | 3.0 | 12.0 | 0.00 | 0.00 | 0.00 | 63 | 1008.3 |
| 20260902175403 | 93 | 226 | 4.0 | 13.0 | 0.00 | 0.00 | 0.00 | 63 | 1008.3 |
| 20260902175307 | 93 | 254 | 6.0 | 13.0 | 0.00 | 0.00 | 0.00 | 62 | 1008.3 |
| 20260902175204 | 93 | 200 | 7.0 | 13.0 | 0.00 | 0.00 | 0.00 | 62 | 1008.3 |
| 20260902175101 | 93 | 240 | 5.0 | 13.0 | 0.00 | 0.00 | 0.00 | 62 | 1008.3 |
| 20260902175002 | 93 | 241 | 2.0 | 13.0 | 0.00 | 0.00 | 0.00 | 63 | 1008.3 |
| 20260902174903 | 93 | 204 | 2.0 | 13.0 | 0.00 | 0.00 | 0.00 | 63 | 1008.4 |
| 20260902174803 | 93 | 244 | 4.0 | 13.0 | 0.00 | 0.00 | 0.00 | 63 | 1008.4 |
| 20260902174704 | 93 | 200 | 5.0 | 13.0 | 0.00 | 0.00 | 0.00 | 63 | 1008.5 |
| 20260902174603 | 93 | 233 | 9.0 | 13.0 | 0.00 | 0.00 | 0.00 | 63 | 1008.4 |
| 20260902174503 | 94 | 266 | 8.0 | 13.0 | 0.00 | 0.00 | 0.00 | 63 | 1008.4 |
| 20260902174404 | 94 | 261 | 6.0 | 10.0 | 0.00 | 0.00 | 0.00 | 63 | 1008.5 |
| 20260902174303 | 93 | 261 | 5.0 | 10.0 | 0.00 | 0.00 | 0.00 | 64 | 1008.5 |
| 20260902174203 | 93 | 206 | 4.0 | 10.0 | 0.00 | 0.00 | 0.00 | 63 | 1008.4 |
| 20260902174101 | 93 | 161 | 4.0 | 10.0 | 0.00 | 0.00 | 0.00 | 64 | 1008.4 |
| 20260902174004 | 93 | 176 | 4.0 | 10.0 | 0.00 | 0.00 | 0.00 | 64 | 1008.5 |
| 20260902173904 | 93 | 144 | 4.0 | 10.0 | 0.00 | 0.00 | 0.00 | 64 | 1008.5 |
| 20260902173802 | 93 | 164 | 4.0 | 10.0 | 0.00 | 0.00 | 0.00 | 64 | 1008.6 |
| 20260902173702 | 93 | 147 | 5.0 | 10.0 | 0.00 | 0.00 | 0.00 | 63 | 1008.7 |
| 20260902173602 | 93 | 193 | 6.0 | 10.0 | 0.00 | 0.00 | 0.00 | 64 | 1008.7 |
| 20260902173502 | 93 | 243 | 5.0 | 10.0 | 0.00 | 0.00 | 0.00 | 64 | 1008.7 |
| 20260902173404 | 93 | 240 | 4.0 | 11.0 | 0.00 | 0.00 | 0.00 | 64 | 1008.7 |
| 20260902173304 | 93 | 189 | 4.0 | 11.0 | 0.00 | 0.00 | 0.00 | 63 | 1008.8 |
| 20260902173202 | 93 | 209 | 5.0 | 11.0 | 0.00 | 0.00 | 0.00 | 63 | 1008.8 |
| 20260902173103 | 94 | 202 | 5.0 | 11.0 | 0.00 | 0.00 | 0.00 | 65 | 1008.7 |
| 20260902173003 | 93 | 209 | 5.0 | 11.0 | 0.00 | 0.00 | 0.00 | 65 | 1008.7 |
| 20260902172902 | 93 | 178 | 5.0 | 11.0 | 0.00 | 0.00 | 0.00 | 65 | 1008.6 |
| 20260902172804 | 93 | 190 | 3.0 | 11.0 | 0.00 | 0.00 | 0.00 | 65 | 1008.7 |
| 20260902172704 | 93 | 178 | 4.0 | 11.0 | 0.00 | 0.00 | 0.00 | 65 | 1008.8 |
| 20260902172602 | 93 | 212 | 6.0 | 11.0 | 0.00 | 0.00 | 0.00 | 65 | 1008.8 |
| 20260902172504 | 93 | 188 | 7.0 | 11.0 | 0.00 | 0.00 | 0.00 | 65 | 1008.8 |
| 20260902172403 | 93 | 221 | 6.0 | 11.0 | 0.00 | 0.00 | 0.00 | 64 | 1008.8 |
| 20260902172307 | 93 | 210 | 4.0 | 9.0 | 0.00 | 0.00 | 0.00 | 64 | 1008.8 |
| 20260902172203 | 93 | 213 | 4.0 | 9.0 | 0.00 | 0.00 | 0.00 | 64 | 1008.9 |
| 20260902172101 | 93 | 226 | 4.0 | 9.0 | 0.00 | 0.00 | 0.00 | 66 | 1008.9 |
| 20260902172003 | 93 | 206 | 4.0 | 9.0 | 0.00 | 0.00 | 0.00 | 66 | 1008.8 |
| 20260902171902 | 93 | 171 | 4.0 | 10.0 | 0.00 | 0.00 | 0.00 | 66 | 1008.8 |
| 20260902171803 | 92 | 213 | 4.0 | 10.0 | 0.00 | 0.00 | 0.00 | 66 | 1008.9 |
| 20260902171702 | 92 | 224 | 4.0 | 10.0 | 0.00 | 0.00 | 0.00 | 66 | 1009.0 |
| 20260902171603 | 92 | 183 | 5.0 | 10.0 | 0.00 | 0.00 | 0.00 | 66 | 1008.9 |
| 20260902171502 | 92 | 206 | 5.0 | 10.0 | 0.00 | 0.00 | 0.00 | 66 | 1008.9 |
| 20260902171404 | 92 | 195 | 6.0 | 10.0 | 0.00 | 0.00 | 0.00 | 66 | 1009.0 |
| 20260902171304 | 92 | 204 | 6.0 | 10.0 | 0.00 | 0.00 | 0.00 | 66 | 1009.0 |
| 20260902171204 | 92 | 185 | 5.0 | 12.0 | 0.00 | 0.00 | 0.00 | 67 | 1009.0 |
| 20260902171103 | 92 | 189 | 5.0 | 12.0 | 0.00 | 0.00 | 0.00 | 67 | 1009.0 |
| 20260902171004 | 92 | 228 | 4.0 | 12.0 | 0.00 | 0.00 | 0.00 | 68 | 1009.1 |
| 20260902170903 | 92 | 172 | 3.0 | 12.0 | 0.00 | 0.00 | 0.00 | 67 | 1009.0 |
| 20260902170805 | 92 | 193 | 4.0 | 12.0 | 0.00 | 0.00 | 0.00 | 68 | 1009.0 |
| 20260902170703 | 92 | 234 | 5.0 | 12.0 | 0.00 | 0.00 | 0.00 | 68 | 1009.1 |
| 20260902170603 | 92 | 223 | 4.0 | 12.0 | 0.00 | 0.00 | 0.00 | 68 | 1009.1 |
| 20260902170502 | 92 | 213 | 4.0 | 12.0 | 0.00 | 0.00 | 0.00 | 68 | 1009.0 |
| 20260902170403 | 92 | 200 | 6.0 | 12.0 | 0.00 | 0.00 | 0.00 | 68 | 1009.1 |
| 20260902170302 | 91 | 224 | 5.0 | 12.0 | 0.00 | 0.00 | 0.00 | 69 | 1009.0 |
| 20260902170204 | 91 | 238 | 4.0 | 10.0 | 0.00 | 0.00 | 0.00 | 69 | 1009.1 |
| 20260902170103 | 91 | 228 | 4.0 | 10.0 | 0.00 | 0.00 | 0.00 | 69 | 1009.1 |
| 20260902170004 | 90 | 235 | 5.0 | 10.0 | 0.00 | 0.00 | 0.00 | 69 | 1009.1 |
| 20260902165902 | 91 | 213 | 4.0 | 10.0 | 0.00 | 0.00 | 0.00 | 69 | 1009.1 |
| 20260902165802 | 91 | 206 | 5.0 | 10.0 | 0.00 | 0.00 | 0.00 | 69 | 1009.2 |
| 20260902165704 | 91 | 228 | 5.0 | 14.0 | 0.00 | 0.00 | 0.00 | 69 | 1009.1 |
| 20260902165604 | 90 | 182 | 4.0 | 14.0 | 0.00 | 0.00 | 0.00 | 69 | 1009.1 |
| 20260902165503 | 90 | 230 | 5.0 | 14.0 | 0.00 | 0.00 | 0.00 | 69 | 1009.1 |
| 20260902165402 | 90 | 220 | 5.0 | 15.0 | 0.00 | 0.00 | 0.00 | 69 | 1009.2 |
| 20260902165308 | 90 | 231 | 6.0 | 15.0 | 0.00 | 0.00 | 0.00 | 69 | 1009.2 |
| 20260902165203 | 90 | 227 | 4.0 | 15.0 | 0.00 | 0.00 | 0.00 | 69 | 1009.1 |
| 20260902165103 | 90 | 231 | 3.0 | 15.0 | 0.00 | 0.00 | 0.00 | 69 | 1009.2 |
| 20260902165002 | 90 | 233 | 4.0 | 15.0 | 0.00 | 0.00 | 0.00 | 69 | 1009.2 |
| 20260902164903 | 90 | 231 | 7.0 | 15.0 | 0.00 | 0.00 | 0.00 | 68 | 1009.1 |
| 20260902164802 | 90 | 261 | 8.0 | 15.0 | 0.00 | 0.00 | 0.00 | 68 | 1009.1 |
| 20260902164703 | 91 | 214 | 6.0 | 15.0 | 0.00 | 0.00 | 0.00 | 69 | 1009.2 |
| 20260902164604 | 91 | 216 | 7.0 | 15.0 | 0.00 | 0.00 | 0.00 | 69 | 1009.2 |
| 20260902164502 | 91 | 220 | 7.0 | 15.0 | 0.00 | 0.00 | 0.00 | 69 | 1009.2 |
| 20260902164403 | 91 | 244 | 6.0 | 10.0 | 0.00 | 0.00 | 0.00 | 69 | 1009.2 |
| 20260902164302 | 90 | 245 | 6.0 | 10.0 | 0.00 | 0.00 | 0.00 | 70 | 1009.3 |
| 20260902164203 | 90 | 271 | 5.0 | 9.0 | 0.00 | 0.00 | 0.00 | 70 | 1009.3 |
| 20260902164104 | 90 | 207 | 5.0 | 10.0 | 0.00 | 0.00 | 0.00 | 70 | 1009.3 |
| 20260902164004 | 90 | 178 | 5.0 | 13.0 | 0.00 | 0.00 | 0.00 | 70 | 1009.3 |
| 20260902163903 | 90 | 188 | 5.0 | 13.0 | 0.00 | 0.00 | 0.00 | 70 | 1009.3 |
| 20260902163802 | 90 | 259 | 3.0 | 13.0 | 0.00 | 0.00 | 0.00 | 71 | 1009.3 |
| 20260902163704 | 89 | 245 | 4.0 | 14.0 | 0.00 | 0.00 | 0.00 | 71 | 1009.3 |
| 20260902163603 | 89 | 195 | 4.0 | 14.0 | 0.00 | 0.00 | 0.00 | 71 | 1009.3 |
| 20260902163504 | 89 | 190 | 4.0 | 14.0 | 0.00 | 0.00 | 0.00 | 71 | 1009.3 |
| 20260902163404 | 89 | 207 | 5.0 | 14.0 | 0.00 | 0.00 | 0.00 | 71 | 1009.3 |
| 20260902163302 | 89 | 226 | 6.0 | 14.0 | 0.00 | 0.00 | 0.00 | 72 | 1009.4 |
| 20260902163205 | 89 | 241 | 8.0 | 14.0 | 0.00 | 0.00 | 0.00 | 71 | 1009.4 |
| 20260902163104 | 89 | 251 | 9.0 | 14.0 | 0.00 | 0.00 | 0.00 | 71 | 1009.2 |
| 20260902163004 | 89 | 231 | 8.0 | 14.0 | 0.00 | 0.00 | 0.00 | 72 | 1009.3 |
| 20260902162904 | 88 | 259 | 7.0 | 14.0 | 0.00 | 0.00 | 0.00 | 72 | 1009.3 |
| 20260902162802 | 88 | 230 | 7.0 | 14.0 | 0.00 | 0.00 | 0.00 | 72 | 1009.3 |
| 20260902162704 | 88 | 230 | 6.0 | 14.0 | 0.00 | 0.00 | 0.00 | 72 | 1009.3 |
| 20260902162600 | 88 | 234 | 6.0 | 13.0 | 0.00 | 0.00 | 0.00 | 73 | 1009.3 |
| 20260902162500 | 88 | 250 | 5.0 | 13.0 | 0.00 | 0.00 | 0.00 | 73 | 1009.3 |
| 20260902162356 | 88 | 230 | 6.0 | 13.0 | 0.00 | 0.00 | 0.00 | 73 | 1009.3 |
| 20260902162255 | 88 | 261 | 8.0 | 13.0 | 0.00 | 0.00 | 0.00 | 73 | 1009.2 |
| 20260902162151 | 88 | 250 | 7.0 | 13.0 | 0.00 | 0.00 | 0.00 | 73 | 1009.3 |
| 20260902162050 | 88 | 238 | 8.0 | 13.0 | 0.00 | 0.00 | 0.00 | 73 | 1009.4 |
| 20260902161945 | 88 | 240 | 7.0 | 13.0 | 0.00 | 0.00 | 0.00 | 73 | 1009.3 |
| 20260902161843 | 88 | 216 | 6.0 | 13.0 | 0.00 | 0.00 | 0.00 | 73 | 1009.4 |
| 20260902161739 | 87 | 234 | 6.0 | 13.0 | 0.00 | 0.00 | 0.00 | 74 | 1009.4 |
| 20260902161633 | 87 | 254 | 8.0 | 13.0 | 0.00 | 0.00 | 0.00 | 74 | 1009.3 |
| 20260902161532 | 87 | 212 | 7.0 | 13.0 | 0.00 | 0.00 | 0.00 | 74 | 1009.3 |
| 20260902161432 | 87 | 238 | 6.0 | 12.0 | 0.00 | 0.00 | 0.00 | 74 | 1009.4 |
| 20260902161331 | 87 | 244 | 7.0 | 12.0 | 0.00 | 0.00 | 0.00 | 73 | 1009.4 |
| 20260902161231 | 88 | 197 | 6.0 | 12.0 | 0.00 | 0.00 | 0.00 | 74 | 1009.4 |
| 20260902161131 | 88 | 206 | 5.0 | 12.0 | 0.00 | 0.00 | 0.00 | 74 | 1009.4 |
| 20260902161033 | 88 | 213 | 5.0 | 12.0 | 0.00 | 0.00 | 0.00 | 74 | 1009.4 |
| 20260902160931 | 88 | 214 | 4.0 | 10.0 | 0.00 | 0.00 | 0.00 | 74 | 1009.4 |
| 20260902160832 | 87 | 231 | 5.0 | 13.0 | 0.00 | 0.00 | 0.00 | 74 | 1009.5 |
| 20260902160731 | 87 | 224 | 6.0 | 13.0 | 0.00 | 0.00 | 0.00 | 74 | 1009.4 |
| 20260902160631 | 87 | 268 | 6.0 | 14.0 | 0.00 | 0.00 | 0.00 | 74 | 1009.4 |
| 20260902160533 | 87 | 234 | 6.0 | 14.0 | 0.00 | 0.00 | 0.00 | 75 | 1009.4 |
| 20260902160433 | 87 | 221 | 4.0 | 14.0 | 0.00 | 0.00 | 0.00 | 75 | 1009.4 |
| 20260902160331 | 87 | 224 | 4.0 | 14.0 | 0.00 | 0.00 | 0.00 | 76 | 1009.4 |
| 20260902160233 | 87 | 196 | 4.0 | 14.0 | 0.00 | 0.00 | 0.00 | 76 | 1009.4 |
| 20260902160132 | 87 | 212 | 6.0 | 14.0 | 0.00 | 0.00 | 0.00 | 76 | 1009.4 |
| 20260902160034 | 87 | 212 | 6.0 | 14.0 | 0.00 | 0.00 | 0.00 | 76 | 1009.4 |
| 20260902155932 | 87 | 261 | 7.0 | 14.0 | 0.00 | 0.00 | 0.00 | 76 | 1009.3 |
| 20260902155833 | 87 | 257 | 8.0 | 14.0 | 0.00 | 0.00 | 0.00 | 77 | 1009.4 |
| 20260902155733 | 87 | 235 | 8.0 | 14.0 | 0.00 | 0.00 | 0.00 | 77 | 1009.4 |
| 20260902155632 | 86 | 250 | 7.0 | 14.0 | 0.00 | 0.00 | 0.00 | 77 | 1009.4 |
| 20260902155533 | 86 | 221 | 7.0 | 14.0 | 0.00 | 0.00 | 0.00 | 77 | 1009.4 |
| 20260902155431 | 86 | 238 | 8.0 | 14.0 | 0.00 | 0.00 | 0.00 | 77 | 1009.3 |
| 20260902155332 | 86 | 247 | 6.0 | 14.0 | 0.00 | 0.00 | 0.00 | 79 | 1009.3 |
| 20260902155228 | 86 | 206 | 5.0 | 13.0 | 0.00 | 0.00 | 0.00 | 79 | 1009.4 |
| 20260902155114 | 86 | 216 | 6.0 | 13.0 | 0.00 | 0.00 | 0.00 | 79 | 1009.4 |
| 20260902155009 | 85 | 265 | 6.0 | 13.0 | 0.00 | 0.00 | 0.00 | 79 | 1009.3 |
| 20260902154906 | 85 | 234 | 5.0 | 13.0 | 0.00 | 0.00 | 0.00 | 79 | 1009.3 |
| 20260902154806 | 85 | 251 | 7.0 | 13.0 | 0.00 | 0.00 | 0.00 | 79 | 1009.3 |
| 20260902154708 | 85 | 217 | 9.0 | 13.0 | 0.00 | 0.00 | 0.00 | 79 | 1009.3 |
| 20260902154605 | 85 | 219 | 8.0 | 13.0 | 0.00 | 0.00 | 0.00 | 79 | 1009.3 |
| 20260902154507 | 85 | 243 | 7.0 | 12.0 | 0.00 | 0.00 | 0.00 | 80 | 1009.3 |
| 20260902154406 | 85 | 189 | 7.0 | 12.0 | 0.00 | 0.00 | 0.00 | 80 | 1009.4 |
| 20260902154306 | 85 | 272 | 6.0 | 12.0 | 0.00 | 0.00 | 0.00 | 80 | 1009.3 |
| 20260902154205 | 85 | 223 | 5.0 | 14.0 | 0.00 | 0.00 | 0.00 | 80 | 1009.4 |
| 20260902154105 | 85 | 226 | 6.0 | 14.0 | 0.00 | 0.00 | 0.00 | 80 | 1009.4 |
| 20260902154006 | 85 | 220 | 7.0 | 14.0 | 0.00 | 0.00 | 0.00 | 80 | 1009.3 |
| 20260902153905 | 85 | 266 | 7.0 | 14.0 | 0.00 | 0.00 | 0.00 | 80 | 1009.3 |
| 20260902153805 | 85 | 228 | 7.0 | 14.0 | 0.00 | 0.00 | 0.00 | 80 | 1009.4 |
| 20260902153705 | 85 | 237 | 7.0 | 14.0 | 0.00 | 0.00 | 0.00 | 80 | 1009.4 |
| 20260902153606 | 85 | 262 | 7.0 | 14.0 | 0.00 | 0.00 | 0.00 | 80 | 1009.4 |
| 20260902153505 | 85 | 223 | 5.0 | 14.0 | 0.00 | 0.00 | 0.00 | 80 | 1009.4 |
| 20260902153406 | 85 | 226 | 6.0 | 14.0 | 0.00 | 0.00 | 0.00 | 80 | 1009.4 |
| 20260902153305 | 85 | 258 | 7.0 | 14.0 | 0.00 | 0.00 | 0.00 | 81 | 1009.4 |
| 20260902153205 | 85 | 226 | 6.0 | 12.0 | 0.00 | 0.00 | 0.00 | 81 | 1009.4 |
| 20260902153105 | 85 | 243 | 7.0 | 12.0 | 0.00 | 0.00 | 0.00 | 81 | 1009.4 |
| 20260902153006 | 85 | 216 | 8.0 | 12.0 | 0.00 | 0.00 | 0.00 | 81 | 1009.3 |
| 20260902152905 | 85 | 265 | 6.0 | 11.0 | 0.00 | 0.00 | 0.00 | 82 | 1009.3 |
| 20260902152806 | 85 | 223 | 4.0 | 7.0 | 0.00 | 0.00 | 0.00 | 82 | 1009.4 |
| 20260902152705 | 85 | 228 | 5.0 | 7.0 | 0.00 | 0.00 | 0.00 | 82 | 1009.4 |
| 20260902152607 | 85 | 200 | 3.0 | 7.0 | 0.00 | 0.00 | 0.00 | 83 | 1009.4 |
| 20260902152505 | 85 | 258 | 3.0 | 7.0 | 0.00 | 0.00 | 0.00 | 83 | 1009.3 |
| 20260902152405 | 84 | 224 | 4.0 | 7.0 | 0.00 | 0.00 | 0.00 | 83 | 1009.3 |
| 20260902152308 | 84 | 214 | 4.0 | 10.0 | 0.00 | 0.00 | 0.00 | 84 | 1009.3 |
| 20260902152206 | 84 | 226 | 4.0 | 10.0 | 0.00 | 0.00 | 0.00 | 84 | 1009.3 |
| 20260902152107 | 84 | 204 | 4.0 | 10.0 | 0.00 | 0.00 | 0.00 | 84 | 1009.3 |
| 20260902152007 | 84 | 210 | 4.0 | 11.0 | 0.00 | 0.00 | 0.00 | 84 | 1009.4 |
| 20260902151905 | 84 | 231 | 4.0 | 11.0 | 0.00 | 0.00 | 0.00 | 84 | 1009.2 |
| 20260902151805 | 84 | 228 | 5.0 | 11.0 | 0.00 | 0.00 | 0.00 | 84 | 1009.3 |
| 20260902151705 | 83 | 226 | 5.0 | 11.0 | 0.00 | 0.00 | 0.00 | 84 | 1009.2 |
| 20260902151604 | 83 | 223 | 4.0 | 11.0 | 0.00 | 0.00 | 0.00 | 85 | 1009.3 |
| 20260902151504 | 83 | 254 | 5.0 | 11.0 | 0.00 | 0.00 | 0.00 | 85 | 1009.3 |
| 20260902151407 | 83 | 223 | 7.0 | 11.0 | 0.00 | 0.00 | 0.00 | 85 | 1009.3 |
| 20260902151304 | 83 | 228 | 8.0 | 11.0 | 0.00 | 0.00 | 0.00 | 85 | 1009.3 |
| 20260902151205 | 83 | 251 | 8.0 | 11.0 | 0.00 | 0.00 | 0.00 | 85 | 1009.3 |
| 20260902151104 | 83 | 238 | 8.0 | 11.0 | 0.00 | 0.00 | 0.00 | 85 | 1009.4 |
| 20260902151005 | 83 | 235 | 6.0 | 11.0 | 0.00 | 0.00 | 0.00 | 85 | 1009.4 |
| 20260902150906 | 83 | 240 | 5.0 | 11.0 | 0.00 | 0.00 | 0.00 | 85 | 1009.4 |
| 20260902150804 | 83 | 257 | 8.0 | 11.0 | 0.00 | 0.00 | 0.00 | 85 | 1009.4 |
| 20260902150704 | 83 | 244 | 8.0 | 11.0 | 0.00 | 0.00 | 0.00 | 85 | 1009.4 |
| 20260902150604 | 83 | 261 | 7.0 | 10.0 | 0.00 | 0.00 | 0.00 | 85 | 1009.4 |
| 20260902150504 | 83 | 254 | 8.0 | 10.0 | 0.00 | 0.00 | 0.00 | 85 | 1009.5 |
| 20260902150405 | 83 | 261 | 8.0 | 10.0 | 0.00 | 0.00 | 0.00 | 85 | 1009.4 |
| 20260902150305 | 83 | 217 | 7.0 | 9.0 | 0.00 | 0.00 | 0.00 | 85 | 1009.4 |
| 20260902150204 | 83 | 231 | 5.0 | 10.0 | 0.00 | 0.00 | 0.00 | 85 | 1009.4 |
| 20260902150104 | 83 | 258 | 4.0 | 10.0 | 0.00 | 0.00 | 0.00 | 86 | 1009.5 |
| 20260902150004 | 83 | 230 | 4.0 | 10.0 | 0.00 | 0.00 | 0.00 | 86 | 1009.4 |
| 20260902145905 | 83 | 243 | 4.0 | 10.0 | 0.00 | 0.00 | 0.00 | 86 | 1009.5 |
| 20260902145805 | 83 | 233 | 5.0 | 10.0 | 0.00 | 0.00 | 0.00 | 86 | 1009.5 |
| 20260902145704 | 83 | 238 | 3.0 | 10.0 | 0.00 | 0.00 | 0.00 | 86 | 1009.4 |
| 20260902145605 | 83 | 245 | 3.0 | 10.0 | 0.00 | 0.00 | 0.00 | 86 | 1009.4 |
| 20260902145504 | 83 | 224 | 3.0 | 10.0 | 0.00 | 0.00 | 0.00 | 86 | 1009.5 |
| 20260902145404 | 82 | 243 | 5.0 | 10.0 | 0.00 | 0.00 | 0.00 | 86 | 1009.4 |
| 20260902145306 | 82 | 235 | 5.0 | 10.0 | 0.00 | 0.00 | 0.00 | 86 | 1009.4 |
| 20260902145207 | 82 | 254 | 5.0 | 7.0 | 0.00 | 0.00 | 0.00 | 86 | 1009.4 |
| 20260902145104 | 82 | 252 | 6.0 | 7.0 | 0.00 | 0.00 | 0.00 | 86 | 1009.4 |
| 20260902145005 | 82 | 255 | 5.0 | 7.0 | 0.00 | 0.00 | 0.00 | 86 | 1009.3 |
| 20260902144904 | 82 | 247 | 4.0 | 10.0 | 0.00 | 0.00 | 0.00 | 87 | 1009.3 |
| 20260902144806 | 82 | 254 | 4.0 | 14.0 | 0.00 | 0.00 | 0.00 | 87 | 1009.4 |
| 20260902144704 | 82 | 230 | 4.0 | 14.0 | 0.00 | 0.00 | 0.00 | 87 | 1009.4 |
| 20260902144605 | 82 | 216 | 4.0 | 14.0 | 0.00 | 0.00 | 0.00 | 87 | 1009.4 |
| 20260902144504 | 82 | 230 | 4.0 | 14.0 | 0.00 | 0.00 | 0.00 | 87 | 1009.4 |
| 20260902144405 | 82 | 221 | 3.0 | 14.0 | 0.00 | 0.00 | 0.00 | 87 | 1009.4 |
| 20260902144305 | 82 | 202 | 3.0 | 14.0 | 0.00 | 0.00 | 0.00 | 87 | 1009.4 |
| 20260902144204 | 82 | 216 | 4.0 | 14.0 | 0.00 | 0.00 | 0.00 | 87 | 1009.3 |
| 20260902144104 | 82 | 214 | 4.0 | 14.0 | 0.00 | 0.00 | 0.00 | 87 | 1009.4 |
| 20260902144004 | 82 | 212 | 8.0 | 14.0 | 0.00 | 0.00 | 0.00 | 87 | 1009.4 |
| 20260902143904 | 82 | 255 | 8.0 | 14.0 | 0.00 | 0.00 | 0.00 | 87 | 1009.3 |
| 20260902143804 | 82 | 223 | 5.0 | 9.0 | 0.00 | 0.00 | 0.00 | 87 | 1009.3 |
| 20260902143704 | 82 | 254 | 4.0 | 7.0 | 0.00 | 0.00 | 0.00 | 87 | 1009.3 |
| 20260902143603 | 82 | 234 | 5.0 | 7.0 | 0.00 | 0.00 | 0.00 | 87 | 1009.4 |
| 20260902143504 | 82 | 228 | 4.0 | 7.0 | 0.00 | 0.00 | 0.00 | 87 | 1009.3 |
| 20260902143404 | 82 | 250 | 4.0 | 6.0 | 0.00 | 0.00 | 0.00 | 87 | 1009.3 |
| 20260902143304 | 82 | 255 | 4.0 | 6.0 | 0.00 | 0.00 | 0.00 | 87 | 1009.3 |
| 20260902143205 | 82 | 221 | 3.0 | 6.0 | 0.00 | 0.00 | 0.00 | 88 | 1009.3 |
| 20260902143104 | 82 | 226 | 4.0 | 6.0 | 0.00 | 0.00 | 0.00 | 88 | 1009.2 |
| 20260902143005 | 82 | 226 | 4.0 | 6.0 | 0.00 | 0.00 | 0.00 | 88 | 1009.3 |
| 20260902142906 | 82 | 234 | 3.0 | 6.0 | 0.00 | 0.00 | 0.00 | 88 | 1009.3 |
| 20260902142804 | 82 | 210 | 2.0 | 6.0 | 0.00 | 0.00 | 0.00 | 88 | 1009.3 |
| 20260902142705 | 82 | 199 | 2.0 | 6.0 | 0.00 | 0.00 | 0.00 | 88 | 1009.3 |
| 20260902142605 | 82 | 214 | 2.0 | 6.0 | 0.00 | 0.00 | 0.00 | 88 | 1009.3 |
| 20260902142505 | 81 | 202 | 3.0 | 6.0 | 0.00 | 0.00 | 0.00 | 88 | 1009.3 |
| 20260902142404 | 81 | 213 | 3.0 | 6.0 | 0.00 | 0.00 | 0.00 | 88 | 1009.3 |
| 20260902142306 | 81 | 223 | 4.0 | 6.0 | 0.00 | 0.00 | 0.00 | 88 | 1009.3 |
| 20260902142204 | 81 | 204 | 4.0 | 6.0 | 0.00 | 0.00 | 0.00 | 88 | 1009.3 |
| 20260902142103 | 81 | 214 | 4.0 | 6.0 | 0.00 | 0.00 | 0.00 | 88 | 1009.2 |
| 20260902142006 | 81 | 252 | 4.0 | 6.0 | 0.00 | 0.00 | 0.00 | 88 | 1009.2 |
| 20260902141904 | 81 | 250 | 4.0 | 6.0 | 0.00 | 0.00 | 0.00 | 88 | 1009.2 |
| 20260902141806 | 81 | 247 | 3.0 | 6.0 | 0.00 | 0.00 | 0.00 | 88 | 1009.3 |
| 20260902141703 | 81 | 244 | 4.0 | 6.0 | 0.00 | 0.00 | 0.00 | 88 | 1009.3 |
| 20260902141602 | 81 | 221 | 4.0 | 6.0 | 0.00 | 0.00 | 0.00 | 88 | 1009.2 |
| 20260902141506 | 81 | 221 | 3.0 | 6.0 | 0.00 | 0.00 | 0.00 | 88 | 1009.2 |
| 20260902141404 | 81 | 217 | 1.0 | 7.0 | 0.00 | 0.00 | 0.00 | 88 | 1009.3 |
| 20260902141303 | 81 | 207 | 1.0 | 7.0 | 0.00 | 0.00 | 0.00 | 88 | 1009.2 |
| 20260902141203 | 81 | 210 | 3.0 | 7.0 | 0.00 | 0.00 | 0.00 | 88 | 1009.3 |
| 20260902141104 | 81 | 241 | 4.0 | 7.0 | 0.00 | 0.00 | 0.00 | 88 | 1009.2 |
| 20260902141003 | 81 | 269 | 4.0 | 7.0 | 0.00 | 0.00 | 0.00 | 88 | 1009.3 |
| 20260902140904 | 81 | 224 | 3.0 | 7.0 | 0.00 | 0.00 | 0.00 | 88 | 1009.3 |
| 20260902140803 | 81 | 206 | 4.0 | 7.0 | 0.00 | 0.00 | 0.00 | 88 | 1009.2 |
| 20260902140703 | 81 | 238 | 4.0 | 7.0 | 0.00 | 0.00 | 0.00 | 88 | 1009.2 |
| 20260902140603 | 81 | 203 | 4.0 | 7.0 | 0.00 | 0.00 | 0.00 | 88 | 1009.2 |
| 20260902140505 | 81 | 235 | 4.0 | 7.0 | 0.00 | 0.00 | 0.00 | 88 | 1009.2 |
| 20260902140403 | 81 | 219 | 4.0 | 7.0 | 0.00 | 0.00 | 0.00 | 89 | 1009.2 |
| 20260902140303 | 81 | 264 | 4.0 | 7.0 | 0.00 | 0.00 | 0.00 | 89 | 1009.2 |
| 20260902140204 | 81 | 228 | 2.0 | 9.0 | 0.00 | 0.00 | 0.00 | 89 | 1009.3 |
| 20260902140104 | 81 | 220 | 2.0 | 9.0 | 0.00 | 0.00 | 0.00 | 89 | 1009.2 |
| 20260902140003 | 81 | 213 | 1.0 | 9.0 | 0.00 | 0.00 | 0.00 | 89 | 1009.3 |
| 20260902135904 | 81 | 219 | 2.0 | 9.0 | 0.00 | 0.00 | 0.00 | 89 | 1009.3 |
| 20260902135803 | 81 | 213 | 2.0 | 9.0 | 0.00 | 0.00 | 0.00 | 89 | 1009.3 |
| 20260902135703 | 81 | 212 | 2.0 | 9.0 | 0.00 | 0.00 | 0.00 | 89 | 1009.3 |
| 20260902135605 | 81 | 216 | 1.0 | 9.0 | 0.00 | 0.00 | 0.00 | 89 | 1009.3 |
| 20260902135503 | 81 | 220 | 1.0 | 9.0 | 0.00 | 0.00 | 0.00 | 89 | 1009.3 |
| 20260902135403 | 81 | 221 | 2.0 | 9.0 | 0.00 | 0.00 | 0.00 | 89 | 1009.3 |
| 20260902135306 | 81 | 223 | 3.0 | 9.0 | 0.00 | 0.00 | 0.00 | 89 | 1009.3 |
| 20260902135203 | 81 | 235 | 3.0 | 7.0 | 0.00 | 0.00 | 0.00 | 89 | 1009.3 |
| 20260902135104 | 81 | 223 | 4.0 | 7.0 | 0.00 | 0.00 | 0.00 | 89 | 1009.3 |
| 20260902135003 | 81 | 216 | 4.0 | 7.0 | 0.00 | 0.00 | 0.00 | 89 | 1009.3 |
| 20260902134905 | 81 | 252 | 3.0 | 7.0 | 0.00 | 0.00 | 0.00 | 89 | 1009.2 |
| 20260902134804 | 81 | 238 | 3.0 | 5.0 | 0.00 | 0.00 | 0.00 | 89 | 1009.2 |
| 20260902134703 | 81 | 244 | 3.0 | 5.0 | 0.00 | 0.00 | 0.00 | 89 | 1009.2 |
| 20260902134601 | 81 | 233 | 3.0 | 5.0 | 0.00 | 0.00 | 0.00 | 89 | 1009.4 |
| 20260902134500 | 81 | 221 | 2.0 | 7.0 | 0.00 | 0.00 | 0.00 | 90 | 1009.2 |
| 20260902134358 | 81 | 223 | 2.0 | 7.0 | 0.00 | 0.00 | 0.00 | 90 | 1009.3 |
| 20260902134258 | 81 | 228 | 2.0 | 7.0 | 0.00 | 0.00 | 0.00 | 90 | 1009.3 |
| 20260902134158 | 80 | 245 | 3.0 | 7.0 | 0.00 | 0.00 | 0.00 | 90 | 1009.2 |
| 20260902134055 | 80 | 220 | 3.0 | 7.0 | 0.00 | 0.00 | 0.00 | 90 | 1009.3 |
| 20260902133954 | 80 | 228 | 3.0 | 7.0 | 0.00 | 0.00 | 0.00 | 90 | 1009.3 |
| 20260902133852 | 80 | 258 | 2.0 | 7.0 | 0.00 | 0.00 | 0.00 | 90 | 1009.3 |
| 20260902133751 | 80 | 240 | 2.0 | 7.0 | 0.00 | 0.00 | 0.00 | 90 | 1009.3 |
| 20260902133650 | 80 | 243 | 3.0 | 7.0 | 0.00 | 0.00 | 0.00 | 90 | 1009.2 |
| 20260902133547 | 80 | 252 | 3.0 | 7.0 | 0.00 | 0.00 | 0.00 | 90 | 1009.3 |
| 20260902133441 | 80 | 212 | 2.0 | 6.0 | 0.00 | 0.00 | 0.00 | 90 | 1009.3 |
| 20260902133338 | 80 | 207 | 2.0 | 6.0 | 0.00 | 0.00 | 0.00 | 90 | 1009.2 |
| 20260902133232 | 80 | 219 | 2.0 | 6.0 | 0.00 | 0.00 | 0.00 | 90 | 1009.3 |
| 20260902133130 | 80 | 199 | 3.0 | 6.0 | 0.00 | 0.00 | 0.00 | 90 | 1009.2 |
| 20260902133027 | 80 | 219 | 3.0 | 6.0 | 0.00 | 0.00 | 0.00 | 90 | 1009.2 |
| 20260902132924 | 80 | 228 | 3.0 | 6.0 | 0.00 | 0.00 | 0.00 | 90 | 1009.2 |
| 20260902132822 | 80 | 219 | 2.0 | 6.0 | 0.00 | 0.00 | 0.00 | 90 | 1009.2 |
| 20260902132716 | 80 | 216 | 2.0 | 5.0 | 0.00 | 0.00 | 0.00 | 90 | 1009.3 |
| 20260902132605 | 80 | 216 | 2.0 | 5.0 | 0.00 | 0.00 | 0.00 | 90 | 1009.1 |
| 20260902132503 | 80 | 213 | 2.0 | 5.0 | 0.00 | 0.00 | 0.00 | 90 | 1009.2 |
| 20260902132403 | 80 | 228 | 2.0 | 5.0 | 0.00 | 0.00 | 0.00 | 90 | 1009.2 |
| 20260902132306 | 80 | 186 | 1.0 | 5.0 | 0.00 | 0.00 | 0.00 | 90 | 1009.3 |
| 20260902132203 | 80 | 228 | 2.0 | 5.0 | 0.00 | 0.00 | 0.00 | 91 | 1009.2 |
| 20260902132103 | 80 | 219 | 2.0 | 5.0 | 0.00 | 0.00 | 0.00 | 91 | 1009.2 |
| 20260902132004 | 80 | 212 | 2.0 | 5.0 | 0.00 | 0.00 | 0.00 | 91 | 1009.3 |
| 20260902131902 | 80 | 213 | 2.0 | 5.0 | 0.00 | 0.00 | 0.00 | 91 | 1009.2 |
| 20260902131803 | 80 | 210 | 3.0 | 5.0 | 0.00 | 0.00 | 0.00 | 91 | 1009.3 |
| 20260902131704 | 80 | 231 | 3.0 | 5.0 | 0.00 | 0.00 | 0.00 | 91 | 1009.1 |
| 20260902131603 | 80 | 210 | 3.0 | 6.0 | 0.00 | 0.00 | 0.00 | 91 | 1009.1 |
| 20260902131504 | 80 | 207 | 3.0 | 6.0 | 0.00 | 0.00 | 0.00 | 91 | 1009.1 |
| 20260902131403 | 80 | 243 | 2.0 | 6.0 | 0.00 | 0.00 | 0.00 | 91 | 1009.1 |
| 20260902131303 | 80 | 220 | 2.0 | 6.0 | 0.00 | 0.00 | 0.00 | 91 | 1009.1 |
| 20260902131202 | 80 | 217 | 2.0 | 6.0 | 0.00 | 0.00 | 0.00 | 91 | 1009.0 |
| 20260902131102 | 80 | 203 | 2.0 | 6.0 | 0.00 | 0.00 | 0.00 | 91 | 1009.1 |
| 20260902131003 | 80 | 231 | 2.0 | 6.0 | 0.00 | 0.00 | 0.00 | 91 | 1009.1 |
| 20260902130903 | 80 | 228 | 1.0 | 6.0 | 0.00 | 0.00 | 0.00 | 91 | 1009.1 |
| 20260902130802 | 80 | 227 | 2.0 | 6.0 | 0.00 | 0.00 | 0.00 | 91 | 1009.0 |
| 20260902130703 | 80 | 226 | 4.0 | 6.0 | 0.00 | 0.00 | 0.00 | 91 | 1009.1 |
| 20260902130601 | 80 | 235 | 2.0 | 6.0 | 0.00 | 0.00 | 0.00 | 91 | 1009.0 |
| 20260902130503 | 80 | 224 | 1.0 | 5.0 | 0.00 | 0.00 | 0.00 | 91 | 1009.0 |
| 20260902130402 | 80 | 224 | 2.0 | 5.0 | 0.00 | 0.00 | 0.00 | 91 | 1009.0 |
| 20260902130300 | 80 | 221 | 3.0 | 5.0 | 0.00 | 0.00 | 0.00 | 91 | 1008.9 |
| 20260902130157 | 80 | 247 | 2.0 | 5.0 | 0.00 | 0.00 | 0.00 | 91 | 1009.0 |
| 20260902130047 | 80 | 230 | 2.0 | 4.0 | 0.00 | 0.00 | 0.00 | 91 | 1008.9 |
| 20260902125939 | 80 | 233 | 2.0 | 4.0 | 0.00 | 0.00 | 0.00 | 91 | 1008.9 |
| 20260902125832 | 80 | 233 | 2.0 | 4.0 | 0.00 | 0.00 | 0.00 | 91 | 1008.8 |
| 20260902125732 | 80 | 226 | 2.0 | 4.0 | 0.00 | 0.00 | 0.00 | 91 | 1008.9 |
| 20260902125632 | 80 | 219 | 2.0 | 4.0 | 0.00 | 0.00 | 0.00 | 91 | 1008.8 |
| 20260902125531 | 80 | 217 | 2.0 | 4.0 | 0.00 | 0.00 | 0.00 | 91 | 1008.8 |
| 20260902125433 | 80 | 216 | 1.0 | 4.0 | 0.00 | 0.00 | 0.00 | 91 | 1008.8 |
| 20260902125329 | 80 | 213 | 2.0 | 4.0 | 0.00 | 0.00 | 0.00 | 91 | 1008.8 |
| 20260902125229 | 80 | 212 | 2.0 | 4.0 | 0.00 | 0.00 | 0.00 | 91 | 1008.9 |
| 20260902125122 | 80 | 210 | 2.0 | 4.0 | 0.00 | 0.00 | 0.00 | 91 | 1008.8 |
| 20260902125009 | 80 | 217 | 2.0 | 6.0 | 0.00 | 0.00 | 0.00 | 91 | 1008.8 |
| 20260902124903 | 80 | 216 | 2.0 | 6.0 | 0.00 | 0.00 | 0.00 | 91 | 1008.7 |
| 20260902124802 | 80 | 209 | 2.0 | 6.0 | 0.00 | 0.00 | 0.00 | 91 | 1008.6 |
| 20260902124703 | 79 | 202 | 2.0 | 6.0 | 0.00 | 0.00 | 0.00 | 91 | 1008.6 |
| 20260902124603 | 80 | 199 | 1.0 | 6.0 | 0.00 | 0.00 | 0.00 | 91 | 1008.6 |
| 20260902124505 | 80 | 199 | 2.0 | 6.0 | 0.00 | 0.00 | 0.00 | 91 | 1008.6 |
| 20260902124403 | 79 | 197 | 2.0 | 6.0 | 0.00 | 0.00 | 0.00 | 91 | 1008.6 |
| 20260902124303 | 79 | 210 | 3.0 | 6.0 | 0.00 | 0.00 | 0.00 | 91 | 1008.5 |
| 20260902124203 | 79 | 213 | 3.0 | 6.0 | 0.00 | 0.00 | 0.00 | 91 | 1008.5 |
| 20260902124102 | 80 | 241 | 3.0 | 6.0 | 0.00 | 0.00 | 0.00 | 91 | 1008.4 |
| 20260902124003 | 79 | 212 | 2.0 | 6.0 | 0.00 | 0.00 | 0.00 | 91 | 1008.4 |
| 20260902123903 | 79 | 197 | 2.0 | 6.0 | 0.00 | 0.00 | 0.00 | 91 | 1008.4 |
| 20260902123802 | 79 | 231 | 1.0 | 6.0 | 0.00 | 0.00 | 0.00 | 91 | 1008.4 |
| 20260902123703 | 79 | 227 | 2.0 | 6.0 | 0.00 | 0.00 | 0.00 | 91 | 1008.3 |
| 20260902123603 | 79 | 228 | 2.0 | 6.0 | 0.00 | 0.00 | 0.00 | 91 | 1008.4 |
| 20260902123504 | 79 | 226 | 3.0 | 6.0 | 0.00 | 0.00 | 0.00 | 91 | 1008.3 |
| 20260902123402 | 79 | 224 | 2.0 | 6.0 | 0.00 | 0.00 | 0.00 | 91 | 1008.4 |
| 20260902123303 | 79 | 220 | 1.0 | 6.0 | 0.00 | 0.00 | 0.00 | 91 | 1008.3 |
| 20260902123202 | 79 | 220 | 2.0 | 6.0 | 0.00 | 0.00 | 0.00 | 91 | 1008.3 |
| 20260902123104 | 79 | 216 | 2.0 | 6.0 | 0.00 | 0.00 | 0.00 | 91 | 1008.3 |
| 20260902123004 | 79 | 214 | 2.0 | 6.0 | 0.00 | 0.00 | 0.00 | 91 | 1008.3 |
| 20260902122902 | 79 | 210 | 2.0 | 6.0 | 0.00 | 0.00 | 0.00 | 91 | 1008.2 |
| 20260902122802 | 79 | 216 | 3.0 | 6.0 | 0.00 | 0.00 | 0.00 | 91 | 1008.2 |
| 20260902122702 | 79 | 248 | 2.0 | 6.0 | 0.00 | 0.00 | 0.00 | 91 | 1008.1 |
| 20260902122603 | 79 | 217 | 1.0 | 4.0 | 0.00 | 0.00 | 0.00 | 91 | 1008.1 |
| 20260902122504 | 79 | 221 | 1.0 | 4.0 | 0.00 | 0.00 | 0.00 | 91 | 1008.1 |
| 20260902122402 | 79 | 217 | 1.0 | 3.0 | 0.00 | 0.00 | 0.00 | 91 | 1008.0 |
| 20260902122305 | 79 | 219 | 1.0 | 3.0 | 0.00 | 0.00 | 0.00 | 91 | 1008.0 |
| 20260902122202 | 79 | 219 | 1.0 | 3.0 | 0.00 | 0.00 | 0.00 | 91 | 1008.0 |
| 20260902122102 | 79 | 214 | 1.0 | 4.0 | 0.00 | 0.00 | 0.00 | 91 | 1007.9 |
| 20260902122003 | 79 | 214 | 2.0 | 4.0 | 0.00 | 0.00 | 0.00 | 91 | 1007.9 |
| 20260902121903 | 79 | 212 | 2.0 | 4.0 | 0.00 | 0.00 | 0.00 | 91 | 1007.9 |
| 20260902121802 | 79 | 221 | 2.0 | 4.0 | 0.00 | 0.00 | 0.00 | 91 | 1007.9 |
| 20260902121703 | 79 | 220 | 2.0 | 4.0 | 0.00 | 0.00 | 0.00 | 91 | 1007.9 |
| 20260902121602 | 79 | 202 | 1.0 | 4.0 | 0.00 | 0.00 | 0.00 | 91 | 1007.8 |
| 20260902121504 | 79 | 200 | 2.0 | 4.0 | 0.00 | 0.00 | 0.00 | 91 | 1007.8 |
| 20260902121402 | 79 | 199 | 2.0 | 4.0 | 0.00 | 0.00 | 0.00 | 91 | 1007.9 |
| 20260902121302 | 79 | 213 | 3.0 | 4.0 | 0.00 | 0.00 | 0.00 | 91 | 1007.8 |
| 20260902121202 | 79 | 214 | 2.0 | 4.0 | 0.00 | 0.00 | 0.00 | 91 | 1007.8 |
| 20260902121104 | 79 | 224 | 2.0 | 4.0 | 0.00 | 0.00 | 0.00 | 91 | 1007.9 |
| 20260902121004 | 79 | 226 | 2.0 | 4.0 | 0.00 | 0.00 | 0.00 | 91 | 1007.8 |
| 20260902120903 | 79 | 224 | 1.0 | 4.0 | 0.00 | 0.00 | 0.00 | 91 | 1007.7 |
| 20260902120803 | 79 | 223 | 2.0 | 4.0 | 0.00 | 0.00 | 0.00 | 91 | 1007.7 |
| 20260902120702 | 79 | 223 | 2.0 | 5.0 | 0.00 | 0.00 | 0.00 | 91 | 1007.7 |
| 20260902120602 | 79 | 226 | 1.0 | 5.0 | 0.00 | 0.00 | 0.00 | 91 | 1007.7 |
| 20260902120502 | 79 | 226 | 2.0 | 5.0 | 0.00 | 0.00 | 0.00 | 91 | 1007.8 |
| 20260902120402 | 79 | 227 | 2.0 | 5.0 | 0.00 | 0.00 | 0.00 | 91 | 1007.8 |
| 20260902120302 | 79 | 220 | 2.0 | 5.0 | 0.00 | 0.00 | 0.00 | 91 | 1007.7 |
| 20260902120201 | 79 | 227 | 2.0 | 5.0 | 0.00 | 0.00 | 0.00 | 91 | 1007.8 |
| 20260902120002 | 79 | 219 | 2.0 | 5.0 | 0.00 | 0.00 | 0.00 | 91 | 1007.8 |
| 20260902115905 | 79 | 212 | 2.0 | 5.0 | 0.00 | 0.00 | 0.00 | 91 | 1007.8 |
| 20260902115802 | 79 | 214 | 2.0 | 5.0 | 0.00 | 0.00 | 0.00 | 91 | 1007.8 |
| 20260902115703 | 79 | 224 | 2.0 | 4.0 | 0.00 | 0.00 | 0.00 | 91 | 1007.9 |
| 20260902115602 | 79 | 231 | 2.0 | 4.0 | 0.00 | 0.00 | 0.00 | 91 | 1007.9 |
| 20260902115502 | 79 | 234 | 2.0 | 4.0 | 0.00 | 0.00 | 0.00 | 91 | 1007.9 |
| 20260902115402 | 79 | 221 | 2.0 | 4.0 | 0.00 | 0.00 | 0.00 | 91 | 1007.9 |
| 20260902115306 | 79 | 223 | 2.0 | 4.0 | 0.00 | 0.00 | 0.00 | 91 | 1007.8 |
| 20260902115204 | 79 | 221 | 2.0 | 3.0 | 0.00 | 0.00 | 0.00 | 91 | 1007.9 |
| 20260902115103 | 79 | 217 | 2.0 | 3.0 | 0.00 | 0.00 | 0.00 | 91 | 1007.9 |
| 20260902115002 | 79 | 217 | 2.0 | 3.0 | 0.00 | 0.00 | 0.00 | 91 | 1007.9 |
| 20260902114902 | 79 | 216 | 2.0 | 4.0 | 0.00 | 0.00 | 0.00 | 91 | 1007.9 |
| 20260902114803 | 79 | 216 | 2.0 | 4.0 | 0.00 | 0.00 | 0.00 | 91 | 1007.8 |
| 20260902114703 | 79 | 216 | 2.0 | 4.0 | 0.00 | 0.00 | 0.00 | 91 | 1007.9 |
| 20260902114602 | 79 | 216 | 2.0 | 4.0 | 0.00 | 0.00 | 0.00 | 91 | 1007.8 |
| 20260902114503 | 79 | 216 | 2.0 | 4.0 | 0.00 | 0.00 | 0.00 | 91 | 1007.9 |
| 20260902114401 | 79 | 216 | 2.0 | 4.0 | 0.00 | 0.00 | 0.00 | 91 | 1007.9 |
| 20260902114301 | 79 | 216 | 2.0 | 4.0 | 0.00 | 0.00 | 0.00 | 91 | 1007.9 |
| 20260902114204 | 79 | 212 | 2.0 | 4.0 | 0.00 | 0.00 | 0.00 | 91 | 1007.9 |
| 20260902114103 | 79 | 216 | 2.0 | 4.0 | 0.00 | 0.00 | 0.00 | 91 | 1007.9 |
| 20260902114005 | 79 | 203 | 2.0 | 4.0 | 0.00 | 0.00 | 0.00 | 91 | 1007.9 |
| 20260902113902 | 79 | 217 | 2.0 | 4.0 | 0.00 | 0.00 | 0.00 | 91 | 1007.9 |
| 20260902113801 | 79 | 226 | 2.0 | 3.0 | 0.00 | 0.00 | 0.00 | 91 | 1007.9 |
| 20260902113702 | 79 | 224 | 2.0 | 3.0 | 0.00 | 0.00 | 0.00 | 90 | 1007.9 |
| 20260902113602 | 79 | 220 | 2.0 | 3.0 | 0.00 | 0.00 | 0.00 | 90 | 1007.9 |
| 20260902113502 | 79 | 220 | 1.0 | 3.0 | 0.00 | 0.00 | 0.00 | 90 | 1008.0 |
| 20260902113403 | 79 | 219 | 1.0 | 3.0 | 0.00 | 0.00 | 0.00 | 90 | 1007.9 |
| 20260902113304 | 79 | 219 | 0.0 | 3.0 | 0.00 | 0.00 | 0.00 | 90 | 1008.0 |
| 20260902113203 | 79 | 214 | 1.0 | 5.0 | 0.00 | 0.00 | 0.00 | 90 | 1008.0 |
| 20260902113102 | 79 | 214 | 1.0 | 5.0 | 0.00 | 0.00 | 0.00 | 90 | 1008.0 |
| 20260902113002 | 79 | 214 | 1.0 | 5.0 | 0.00 | 0.00 | 0.00 | 90 | 1008.0 |
| 20260902112902 | 79 | 224 | 1.0 | 5.0 | 0.00 | 0.00 | 0.00 | 90 | 1008.0 |
| 20260902112804 | 79 | 230 | 1.0 | 5.0 | 0.00 | 0.00 | 0.00 | 90 | 1007.9 |
| 20260902112702 | 79 | 234 | 1.0 | 5.0 | 0.00 | 0.00 | 0.00 | 90 | 1008.0 |
| 20260902112604 | 79 | 234 | 2.0 | 5.0 | 0.00 | 0.00 | 0.00 | 90 | 1007.9 |
| 20260902112502 | 79 | 233 | 2.0 | 5.0 | 0.00 | 0.00 | 0.00 | 90 | 1008.0 |
| 20260902112402 | 79 | 243 | 2.0 | 5.0 | 0.00 | 0.00 | 0.00 | 90 | 1007.9 |
| 20260902112305 | 79 | 243 | 4.0 | 5.0 | 0.00 | 0.00 | 0.00 | 90 | 1007.9 |
| 20260902112203 | 79 | 257 | 4.0 | 5.0 | 0.00 | 0.00 | 0.00 | 90 | 1007.9 |
| 20260902112102 | 79 | 226 | 1.0 | 3.0 | 0.00 | 0.00 | 0.00 | 90 | 1007.9 |
| 20260902112002 | 79 | 226 | 2.0 | 3.0 | 0.00 | 0.00 | 0.00 | 90 | 1007.9 |
| 20260902111859 | 79 | 226 | 2.0 | 3.0 | 0.00 | 0.00 | 0.00 | 90 | 1007.9 |
| 20260902111758 | 79 | 224 | 2.0 | 3.0 | 0.00 | 0.00 | 0.00 | 90 | 1007.9 |
| 20260902111659 | 79 | 228 | 2.0 | 3.0 | 0.00 | 0.00 | 0.00 | 90 | 1007.9 |
| 20260902111559 | 79 | 230 | 1.0 | 3.0 | 0.00 | 0.00 | 0.00 | 90 | 1007.9 |
| 20260902111458 | 79 | 200 | 1.0 | 3.0 | 0.00 | 0.00 | 0.00 | 90 | 1007.9 |
| 20260902111359 | 79 | 216 | 1.0 | 3.0 | 0.00 | 0.00 | 0.00 | 90 | 1007.9 |
| 20260902111300 | 79 | 216 | 1.0 | 3.0 | 0.00 | 0.00 | 0.00 | 90 | 1007.9 |
| 20260902111158 | 79 | 214 | 1.0 | 3.0 | 0.00 | 0.00 | 0.00 | 90 | 1007.9 |
| 20260902111058 | 79 | 214 | 1.0 | 3.0 | 0.00 | 0.00 | 0.00 | 90 | 1007.9 |
| 20260902110957 | 79 | 213 | 2.0 | 3.0 | 0.00 | 0.00 | 0.00 | 90 | 1007.9 |
| 20260902110859 | 79 | 207 | 1.0 | 3.0 | 0.00 | 0.00 | 0.00 | 90 | 1007.9 |
| 20260902110759 | 79 | 207 | 1.0 | 3.0 | 0.00 | 0.00 | 0.00 | 90 | 1007.7 |
| 20260902110658 | 79 | 207 | 1.0 | 3.0 | 0.00 | 0.00 | 0.00 | 90 | 1007.8 |
| 20260902110558 | 79 | 206 | 0.0 | 3.0 | 0.00 | 0.00 | 0.00 | 90 | 1007.8 |
| 20260902110500 | 79 | 206 | 0.0 | 3.0 | 0.00 | 0.00 | 0.00 | 90 | 1007.8 |
| 20260902110359 | 79 | 206 | 1.0 | 3.0 | 0.00 | 0.00 | 0.00 | 90 | 1007.8 |
| 20260902110258 | 79 | 219 | 1.0 | 3.0 | 0.00 | 0.00 | 0.00 | 90 | 1007.8 |
| 20260902110158 | 79 | 219 | 1.0 | 3.0 | 0.00 | 0.00 | 0.00 | 90 | 1007.8 |
| 20260902110057 | 79 | 223 | 2.0 | 3.0 | 0.00 | 0.00 | 0.00 | 90 | 1007.8 |
| 20260902105957 | 79 | 226 | 1.0 | 3.0 | 0.00 | 0.00 | 0.00 | 90 | 1007.8 |
| 20260902105859 | 79 | 224 | 1.0 | 3.0 | 0.00 | 0.00 | 0.00 | 90 | 1007.9 |
| 20260902105757 | 79 | 224 | 1.0 | 3.0 | 0.00 | 0.00 | 0.00 | 90 | 1007.9 |
| 20260902105658 | 79 | 224 | 1.0 | 3.0 | 0.00 | 0.00 | 0.00 | 90 | 1007.8 |
| 20260902105558 | 79 | 237 | 1.0 | 2.0 | 0.00 | 0.00 | 0.00 | 90 | 1007.8 |
| 20260902105454 | 79 | 237 | 1.0 | 2.0 | 0.00 | 0.00 | 0.00 | 90 | 1007.9 |
| 20260902105349 | 79 | 243 | 1.0 | 3.0 | 0.00 | 0.00 | 0.00 | 90 | 1007.9 |
| 20260902105249 | 79 | 244 | 1.0 | 3.0 | 0.00 | 0.00 | 0.00 | 90 | 1007.9 |
| 20260902105146 | 79 | 244 | 1.0 | 3.0 | 0.00 | 0.00 | 0.00 | 90 | 1007.9 |
| 20260902105041 | 79 | 248 | 1.0 | 3.0 | 0.00 | 0.00 | 0.00 | 90 | 1008.0 |
| 20260902104932 | 79 | 250 | 1.0 | 3.0 | 0.00 | 0.00 | 0.00 | 90 | 1008.0 |
| 20260902104832 | 79 | 250 | 1.0 | 3.0 | 0.00 | 0.00 | 0.00 | 90 | 1007.9 |
| 20260902104730 | 79 | 251 | 1.0 | 3.0 | 0.00 | 0.00 | 0.00 | 90 | 1008.0 |
| 20260902104631 | 79 | 252 | 1.0 | 3.0 | 0.00 | 0.00 | 0.00 | 90 | 1007.9 |
| 20260902104531 | 79 | 252 | 2.0 | 4.0 | 0.00 | 0.00 | 0.00 | 90 | 1007.9 |
| 20260902104432 | 79 | 252 | 2.0 | 4.0 | 0.00 | 0.00 | 0.00 | 90 | 1007.9 |
| 20260902104331 | 79 | 252 | 2.0 | 4.0 | 0.00 | 0.00 | 0.00 | 90 | 1007.9 |
| 20260902104232 | 79 | 251 | 2.0 | 4.0 | 0.00 | 0.00 | 0.00 | 90 | 1007.9 |
| 20260902104132 | 79 | 252 | 2.0 | 4.0 | 0.00 | 0.00 | 0.00 | 90 | 1007.9 |
| 20260902104032 | 79 | 252 | 2.0 | 4.0 | 0.00 | 0.00 | 0.00 | 89 | 1008.0 |
| 20260902103932 | 79 | 252 | 2.0 | 4.0 | 0.00 | 0.00 | 0.00 | 89 | 1007.9 |
| 20260902103832 | 79 | 251 | 2.0 | 4.0 | 0.00 | 0.00 | 0.00 | 89 | 1008.0 |
| 20260902103733 | 79 | 251 | 2.0 | 4.0 | 0.00 | 0.00 | 0.00 | 89 | 1008.0 |
| 20260902103631 | 79 | 251 | 2.0 | 4.0 | 0.00 | 0.00 | 0.00 | 89 | 1007.9 |
| 20260902103532 | 79 | 251 | 2.0 | 4.0 | 0.00 | 0.00 | 0.00 | 89 | 1008.0 |
| 20260902103432 | 79 | 250 | 2.0 | 3.0 | 0.00 | 0.00 | 0.00 | 89 | 1007.9 |
| 20260902103331 | 79 | 248 | 2.0 | 3.0 | 0.00 | 0.00 | 0.00 | 89 | 1008.0 |
| 20260902103233 | 79 | 245 | 2.0 | 3.0 | 0.00 | 0.00 | 0.00 | 89 | 1008.0 |
| 20260902103131 | 79 | 245 | 2.0 | 3.0 | 0.00 | 0.00 | 0.00 | 89 | 1008.0 |
| 20260902103032 | 79 | 245 | 1.0 | 3.0 | 0.00 | 0.00 | 0.00 | 89 | 1007.9 |
| 20260902102933 | 79 | 245 | 2.0 | 4.0 | 0.00 | 0.00 | 0.00 | 89 | 1007.9 |
| 20260902102831 | 79 | 244 | 2.0 | 4.0 | 0.00 | 0.00 | 0.00 | 89 | 1007.9 |
| 20260902102732 | 79 | 244 | 2.0 | 4.0 | 0.00 | 0.00 | 0.00 | 89 | 1007.9 |
| 20260902102619 | 79 | 244 | 2.0 | 4.0 | 0.00 | 0.00 | 0.00 | 89 | 1008.0 |
| 20260902102519 | 80 | 243 | 2.0 | 4.0 | 0.00 | 0.00 | 0.00 | 89 | 1007.9 |
| 20260902102417 | 80 | 243 | 2.0 | 4.0 | 0.00 | 0.00 | 0.00 | 89 | 1007.9 |
| 20260902102310 | 80 | 243 | 2.0 | 4.0 | 0.00 | 0.00 | 0.00 | 89 | 1007.9 |
| 20260902102210 | 80 | 243 | 2.0 | 4.0 | 0.00 | 0.00 | 0.00 | 89 | 1007.9 |
| 20260902102106 | 80 | 243 | 2.0 | 4.0 | 0.00 | 0.00 | 0.00 | 89 | 1007.9 |
| 20260902102003 | 80 | 243 | 2.0 | 4.0 | 0.00 | 0.00 | 0.00 | 89 | 1007.9 |
| 20260902101904 | 80 | 241 | 2.0 | 4.0 | 0.00 | 0.00 | 0.00 | 89 | 1007.8 |
| 20260902101804 | 80 | 241 | 2.0 | 4.0 | 0.00 | 0.00 | 0.00 | 89 | 1007.8 |
| 20260902101703 | 80 | 240 | 2.0 | 4.0 | 0.00 | 0.00 | 0.00 | 89 | 1007.8 |
| 20260902101604 | 80 | 238 | 2.0 | 4.0 | 0.00 | 0.00 | 0.00 | 89 | 1007.9 |
| 20260902101504 | 80 | 238 | 2.0 | 4.0 | 0.00 | 0.00 | 0.00 | 89 | 1007.7 |
| 20260902101404 | 80 | 238 | 1.0 | 4.0 | 0.00 | 0.00 | 0.00 | 89 | 1007.7 |
| 20260902101303 | 80 | 235 | 2.0 | 4.0 | 0.00 | 0.00 | 0.00 | 89 | 1007.7 |
| 20260902101202 | 80 | 235 | 2.0 | 4.0 | 0.00 | 0.00 | 0.00 | 89 | 1007.6 |
| 20260902101104 | 80 | 217 | 0.0 | 3.0 | 0.00 | 0.00 | 0.00 | 89 | 1007.6 |
| 20260902101002 | 80 | 217 | 1.0 | 3.0 | 0.00 | 0.00 | 0.00 | 89 | 1007.7 |
| 20260902100904 | 80 | 217 | 1.0 | 3.0 | 0.00 | 0.00 | 0.00 | 89 | 1007.7 |
| 20260902100804 | 80 | 217 | 1.0 | 3.0 | 0.00 | 0.00 | 0.00 | 89 | 1007.6 |
| 20260902100702 | 80 | 219 | 1.0 | 3.0 | 0.00 | 0.00 | 0.00 | 89 | 1007.7 |
| 20260902100604 | 80 | 219 | 1.0 | 3.0 | 0.00 | 0.00 | 0.00 | 89 | 1007.6 |
| 20260902100504 | 80 | 219 | 1.0 | 3.0 | 0.00 | 0.00 | 0.00 | 89 | 1007.7 |
| 20260902100404 | 80 | 219 | 1.0 | 3.0 | 0.00 | 0.00 | 0.00 | 89 | 1007.6 |
| 20260902100304 | 80 | 217 | 1.0 | 3.0 | 0.00 | 0.00 | 0.00 | 89 | 1007.7 |
| 20260902100202 | 80 | 217 | 1.0 | 3.0 | 0.00 | 0.00 | 0.00 | 89 | 1007.6 |
| 20260902100003 | 80 | 206 | 1.0 | 3.0 | 0.00 | 0.00 | 0.00 | 89 | 1007.6 |
| 20260902095903 | 80 | 206 | 1.0 | 3.0 | 0.00 | 0.00 | 0.00 | 89 | 1007.7 |
| 20260902095804 | 80 | 207 | 0.0 | 3.0 | 0.00 | 0.00 | 0.00 | 89 | 1007.6 |
| 20260902095703 | 80 | 207 | 0.0 | 3.0 | 0.00 | 0.00 | 0.00 | 89 | 1007.7 |
| 20260902095604 | 80 | 207 | 1.0 | 3.0 | 0.00 | 0.00 | 0.00 | 89 | 1007.7 |
| 20260902095504 | 80 | 209 | 1.0 | 3.0 | 0.00 | 0.00 | 0.00 | 89 | 1007.7 |
| 20260902095402 | 80 | 206 | 0.0 | 3.0 | 0.00 | 0.00 | 0.00 | 89 | 1007.6 |
| 20260902095306 | 80 | 207 | 0.0 | 3.0 | 0.00 | 0.00 | 0.00 | 88 | 1007.6 |
| 20260902095204 | 80 | 207 | 0.0 | 3.0 | 0.00 | 0.00 | 0.00 | 88 | 1007.7 |
| 20260902095102 | 80 | 207 | 1.0 | 3.0 | 0.00 | 0.00 | 0.00 | 88 | 1007.7 |
| 20260902095005 | 80 | 209 | 1.0 | 4.0 | 0.00 | 0.00 | 0.00 | 88 | 1007.7 |
| 20260902094902 | 80 | 207 | 1.0 | 4.0 | 0.00 | 0.00 | 0.00 | 88 | 1007.7 |
| 20260902094802 | 80 | 219 | 1.0 | 4.0 | 0.00 | 0.00 | 0.00 | 88 | 1007.7 |
| 20260902094704 | 80 | 219 | 2.0 | 4.0 | 0.00 | 0.00 | 0.00 | 88 | 1007.7 |
| 20260902094603 | 80 | 212 | 1.0 | 4.0 | 0.00 | 0.00 | 0.00 | 88 | 1007.7 |
| 20260902094502 | 80 | 210 | 2.0 | 4.0 | 0.00 | 0.00 | 0.00 | 88 | 1007.7 |
| 20260902094403 | 80 | 214 | 1.0 | 4.0 | 0.00 | 0.00 | 0.00 | 88 | 1007.7 |
| 20260902094303 | 80 | 216 | 1.0 | 5.0 | 0.00 | 0.00 | 0.00 | 88 | 1007.7 |
| 20260902094203 | 80 | 217 | 1.0 | 5.0 | 0.00 | 0.00 | 0.00 | 88 | 1007.7 |
| 20260902094102 | 80 | 223 | 2.0 | 5.0 | 0.00 | 0.00 | 0.00 | 88 | 1007.7 |
| 20260902094003 | 80 | 206 | 1.0 | 5.0 | 0.00 | 0.00 | 0.00 | 88 | 1007.8 |
| 20260902093903 | 80 | 203 | 1.0 | 5.0 | 0.00 | 0.00 | 0.00 | 88 | 1007.7 |
| 20260902093804 | 80 | 207 | 1.0 | 5.0 | 0.00 | 0.00 | 0.00 | 88 | 1007.7 |
| 20260902093704 | 80 | 213 | 1.0 | 5.0 | 0.00 | 0.00 | 0.00 | 88 | 1007.7 |
| 20260902093603 | 80 | 213 | 1.0 | 5.0 | 0.00 | 0.00 | 0.00 | 88 | 1007.7 |
| 20260902093503 | 80 | 213 | 1.0 | 5.0 | 0.00 | 0.00 | 0.00 | 88 | 1007.6 |
| 20260902093402 | 80 | 213 | 1.0 | 5.0 | 0.00 | 0.00 | 0.00 | 88 | 1007.6 |
| 20260902093303 | 80 | 221 | 0.0 | 3.0 | 0.00 | 0.00 | 0.00 | 88 | 1007.7 |
| 20260902093202 | 80 | 221 | 1.0 | 3.0 | 0.00 | 0.00 | 0.00 | 88 | 1007.6 |
| 20260902093103 | 80 | 221 | 1.0 | 3.0 | 0.00 | 0.00 | 0.00 | 88 | 1007.7 |
| 20260902093004 | 80 | 220 | 1.0 | 3.0 | 0.00 | 0.00 | 0.00 | 88 | 1007.8 |
| 20260902092903 | 80 | 220 | 1.0 | 3.0 | 0.00 | 0.00 | 0.00 | 88 | 1007.7 |
| 20260902092803 | 80 | 221 | 1.0 | 3.0 | 0.00 | 0.00 | 0.00 | 88 | 1007.8 |
| 20260902092702 | 80 | 221 | 1.0 | 3.0 | 0.00 | 0.00 | 0.00 | 88 | 1007.8 |
| 20260902092603 | 80 | 221 | 2.0 | 3.0 | 0.00 | 0.00 | 0.00 | 88 | 1007.8 |
| 20260902092503 | 80 | 220 | 2.0 | 3.0 | 0.00 | 0.00 | 0.00 | 88 | 1007.8 |
| 20260902092403 | 80 | 220 | 1.0 | 3.0 | 0.00 | 0.00 | 0.00 | 88 | 1007.9 |
| 20260902092305 | 80 | 219 | 0.0 | 3.0 | 0.00 | 0.00 | 0.00 | 88 | 1007.9 |
| 20260902092204 | 80 | 219 | 1.0 | 3.0 | 0.00 | 0.00 | 0.00 | 88 | 1007.8 |
| 20260902092103 | 80 | 219 | 1.0 | 3.0 | 0.00 | 0.00 | 0.00 | 88 | 1007.8 |
| 20260902092004 | 80 | 219 | 1.0 | 3.0 | 0.00 | 0.00 | 0.00 | 88 | 1007.9 |
| 20260902091902 | 80 | 231 | 1.0 | 4.0 | 0.00 | 0.00 | 0.00 | 88 | 1007.8 |
| 20260902091803 | 80 | 231 | 1.0 | 4.0 | 0.00 | 0.00 | 0.00 | 88 | 1007.8 |
| 20260902091702 | 80 | 231 | 1.0 | 4.0 | 0.00 | 0.00 | 0.00 | 88 | 1007.8 |
| 20260902091604 | 80 | 231 | 2.0 | 4.0 | 0.00 | 0.00 | 0.00 | 87 | 1007.8 |
| 20260902091503 | 80 | 230 | 1.0 | 4.0 | 0.00 | 0.00 | 0.00 | 87 | 1007.8 |
| 20260902091403 | 80 | 231 | 1.0 | 4.0 | 0.00 | 0.00 | 0.00 | 87 | 1007.8 |
| 20260902091303 | 80 | 231 | 1.0 | 4.0 | 0.00 | 0.00 | 0.00 | 87 | 1007.8 |
| 20260902091203 | 80 | 233 | 1.0 | 5.0 | 0.00 | 0.00 | 0.00 | 87 | 1007.8 |
| 20260902091104 | 80 | 231 | 1.0 | 5.0 | 0.00 | 0.00 | 0.00 | 87 | 1007.8 |
| 20260902091005 | 80 | 231 | 2.0 | 5.0 | 0.00 | 0.00 | 0.00 | 87 | 1007.8 |
| 20260902090903 | 80 | 244 | 2.0 | 5.0 | 0.00 | 0.00 | 0.00 | 87 | 1007.9 |